[{"header": {"parameterCategory": 1, "parameterNumber": 2, "dx": 0.06612293990616946, "dy": 0.0552356325346848, "nx": 98, "ny": 59, "la1": 35.046912555036876, "la2": 31.78801023549047, "lo1": -121.43107172385933, "lo2": -114.95102361305473, "refTime": "2026041212"}, "data": [22.8, 23.25, 23.69, 24.59, 24.59, 25.03, 25.03, 25.48, 25.48, 25.93, 25.93, 25.93, 25.93, 25.93, 25.93, 26.37, 26.37, 26.37, 26.37, 26.82, 26.37, 26.37, 26.37, 25.93, 25.93, 25.93, 25.93, 25.93, 25.93, 25.48, 25.48, 25.48, 25.48, 25.48, 25.03, 25.03, 25.03, 25.03, 25.03, 25.48, 25.48, 25.03, 25.03, 24.59, 24.59, 24.59, 24.59, 24.59, 24.14, 24.14, 23.69, 23.25, 22.8, 22.8, 22.8, 22.35, 22.35, 22.35, 22.35, 22.35, 22.35, 22.35, 21.9, 21.9, 21.46, 20.56, 20.12, 19.22, 18.33, 17.88, 17.43, 17.88, 17.88, 18.33, 18.33, 17.88, 17.43, 16.99, 16.99, 17.43, 17.43, 17.88, 18.33, 18.33, 18.33, 18.33, 17.88, 17.88, 17.43, 16.99, 16.99, 16.99, 16.99, 17.43, 17.43, 17.43, 17.43, 17.43, 23.69, 24.14, 24.59, 25.03, 25.48, 25.48, 25.93, 25.93, 25.93, 26.37, 26.37, 26.37, 25.93, 26.37, 26.37, 26.37, 26.82, 26.82, 26.82, 26.82, 27.27, 26.82, 26.82, 26.82, 26.37, 26.37, 26.37, 26.37, 26.37, 25.93, 25.93, 25.48, 25.48, 25.03, 25.03, 24.59, 24.59, 24.59, 25.03, 25.03, 25.03, 24.59, 24.59, 24.59, 24.59, 24.59, 24.59, 24.14, 24.14, 24.14, 23.69, 23.25, 22.8, 22.8, 22.8, 22.8, 22.35, 22.35, 22.35, 22.35, 22.35, 21.9, 21.9, 21.46, 21.01, 20.56, 20.12, 19.22, 18.78, 18.33, 17.88, 17.88, 18.33, 18.78, 18.33, 18.33, 17.88, 16.99, 16.99, 17.43, 17.43, 17.88, 18.33, 18.33, 18.33, 18.33, 17.88, 17.88, 17.43, 16.99, 16.99, 16.99, 16.99, 17.43, 17.43, 17.43, 17.43, 17.43, 25.03, 25.48, 25.93, 25.93, 25.93, 26.37, 26.37, 26.37, 26.82, 26.82, 26.37, 26.37, 26.37, 26.37, 26.82, 26.82, 27.27, 27.27, 27.27, 27.27, 27.27, 27.27, 27.27, 27.27, 26.82, 26.82, 26.37, 26.37, 26.37, 26.37, 26.37, 26.37, 25.93, 25.48, 24.59, 24.59, 24.14, 24.59, 24.59, 25.03, 24.59, 24.14, 24.14, 24.14, 24.59, 24.59, 24.59, 24.14, 24.14, 24.14, 23.69, 23.25, 22.8, 22.8, 22.8, 22.8, 22.8, 22.35, 22.35, 22.35, 22.35, 21.9, 21.9, 21.46, 21.01, 20.56, 19.67, 19.22, 18.78, 18.33, 17.88, 17.88, 18.33, 18.78, 18.78, 18.33, 17.88, 17.43, 17.43, 17.88, 17.88, 18.33, 18.33, 18.33, 18.33, 18.33, 17.88, 17.88, 17.43, 16.99, 16.99, 17.43, 17.43, 17.43, 17.88, 17.88, 17.88, 17.88, 25.93, 26.37, 26.82, 26.82, 26.82, 26.82, 26.82, 26.82, 27.27, 26.82, 26.82, 26.82, 26.82, 26.82, 27.27, 27.27, 27.27, 27.27, 27.72, 27.72, 27.72, 27.72, 27.72, 27.72, 27.27, 27.27, 26.82, 26.82, 26.82, 26.82, 26.82, 26.82, 26.82, 26.37, 25.48, 25.03, 24.59, 24.59, 25.03, 25.03, 24.59, 24.14, 24.14, 24.59, 24.59, 24.59, 24.59, 24.59, 24.14, 24.14, 23.69, 23.25, 22.8, 22.8, 22.8, 22.8, 22.8, 22.35, 22.35, 22.35, 22.35, 21.9, 21.9, 21.46, 21.01, 20.56, 19.67, 19.22, 18.78, 18.78, 18.33, 17.88, 18.33, 18.78, 18.78, 18.78, 17.88, 17.88, 17.88, 18.33, 17.88, 17.88, 18.33, 18.33, 18.33, 18.33, 17.88, 17.88, 17.43, 17.43, 17.43, 17.43, 17.88, 17.88, 17.88, 17.88, 17.88, 17.88, 26.82, 27.27, 27.27, 27.27, 27.27, 27.27, 27.27, 27.27, 27.27, 27.27, 27.27, 27.27, 27.27, 27.27, 27.27, 27.72, 27.72, 27.72, 27.72, 27.72, 27.72, 28.16, 28.16, 28.16, 28.16, 27.72, 27.27, 27.27, 26.82, 26.82, 27.27, 27.27, 27.27, 26.82, 26.37, 25.93, 25.93, 25.48, 25.48, 25.48, 25.03, 25.03, 24.59, 24.59, 24.59, 25.03, 25.03, 24.59, 24.14, 24.14, 23.69, 23.25, 22.8, 22.8, 22.8, 22.8, 22.8, 22.35, 22.35, 22.35, 22.35, 22.35, 21.9, 21.46, 21.01, 20.56, 20.12, 19.67, 19.22, 18.78, 18.33, 17.88, 17.88, 18.33, 18.33, 18.33, 17.88, 17.43, 17.88, 18.33, 17.88, 17.88, 17.88, 18.33, 18.33, 18.33, 17.88, 17.88, 17.43, 17.43, 17.88, 17.88, 18.33, 18.33, 18.33, 18.33, 18.33, 18.33, 27.72, 28.16, 28.16, 27.72, 27.72, 27.72, 27.72, 27.72, 27.72, 27.72, 27.27, 27.27, 27.72, 27.72, 27.72, 27.72, 27.72, 27.72, 28.16, 28.16, 28.16, 28.16, 28.61, 28.61, 28.61, 28.61, 28.16, 27.72, 27.72, 27.27, 27.27, 27.72, 27.27, 27.27, 26.82, 26.82, 26.37, 25.93, 25.93, 25.93, 25.93, 25.48, 25.48, 25.48, 25.48, 25.48, 25.03, 25.03, 24.59, 24.14, 23.69, 23.25, 23.25, 23.25, 22.8, 22.8, 22.8, 22.8, 22.35, 22.35, 22.35, 22.35, 21.9, 21.46, 21.01, 20.56, 20.12, 20.12, 19.67, 19.22, 18.78, 18.33, 17.88, 17.43, 17.43, 17.43, 17.43, 17.43, 17.43, 17.88, 17.88, 17.88, 17.88, 18.33, 18.33, 18.33, 17.88, 17.88, 17.88, 17.88, 17.88, 18.33, 18.33, 18.78, 18.33, 18.33, 18.33, 18.33, 28.61, 28.61, 28.61, 28.16, 28.16, 28.16, 28.16, 28.16, 28.16, 28.16, 27.72, 27.72, 27.72, 28.16, 28.16, 28.16, 28.16, 28.16, 28.16, 28.16, 28.16, 28.61, 28.61, 28.61, 28.16, 28.61, 28.16, 28.16, 28.16, 27.72, 27.72, 27.72, 27.72, 27.27, 27.27, 26.82, 26.82, 26.37, 25.93, 26.37, 26.37, 26.37, 25.93, 25.93, 25.93, 25.48, 25.48, 25.03, 24.59, 24.59, 24.14, 23.69, 23.25, 23.25, 23.25, 22.8, 22.8, 22.8, 22.8, 22.35, 22.35, 22.35, 21.9, 21.46, 21.01, 20.56, 20.12, 20.12, 20.12, 19.67, 19.22, 18.78, 18.33, 17.43, 16.99, 16.54, 16.99, 17.43, 17.43, 17.43, 17.88, 17.88, 17.88, 18.33, 18.33, 18.33, 17.88, 17.88, 17.88, 18.33, 18.33, 18.33, 18.78, 18.78, 18.78, 18.33, 18.78, 18.78, 29.06, 29.06, 29.06, 28.61, 28.61, 28.61, 28.61, 28.61, 28.61, 28.16, 28.16, 28.61, 28.16, 28.16, 28.61, 28.61, 28.61, 28.16, 28.16, 28.16, 28.16, 28.61, 28.61, 28.61, 28.61, 28.16, 28.16, 28.61, 28.61, 28.16, 28.16, 28.16, 28.16, 27.72, 27.27, 27.27, 26.82, 26.82, 26.37, 26.37, 26.37, 26.37, 26.37, 26.37, 25.93, 25.93, 25.93, 25.48, 25.03, 24.59, 24.59, 24.14, 23.69, 23.69, 23.69, 23.25, 23.25, 22.8, 22.8, 22.8, 22.8, 22.35, 21.9, 21.46, 21.01, 20.56, 20.56, 20.56, 20.12, 19.67, 19.67, 19.22, 18.33, 17.43, 16.99, 16.54, 16.54, 16.99, 16.99, 17.43, 17.43, 17.88, 18.33, 18.33, 18.33, 18.33, 17.88, 17.88, 17.88, 18.33, 18.78, 18.78, 18.78, 18.78, 18.33, 18.78, 18.78, 18.78, 29.95, 29.5, 29.5, 29.5, 29.5, 29.5, 29.06, 29.06, 29.06, 29.06, 29.06, 29.06, 28.61, 28.61, 28.61, 28.61, 28.61, 28.61, 28.61, 28.61, 28.61, 28.16, 28.61, 28.61, 28.61, 28.16, 28.61, 28.61, 28.61, 27.72, 27.72, 28.16, 28.16, 27.72, 27.27, 27.27, 27.27, 27.27, 26.82, 26.37, 26.37, 26.37, 26.37, 26.37, 26.37, 26.37, 25.93, 25.48, 25.48, 25.03, 24.59, 24.14, 24.14, 23.69, 23.69, 23.69, 23.25, 23.25, 23.25, 23.25, 22.8, 22.35, 21.46, 21.01, 21.01, 21.01, 20.56, 20.56, 20.12, 20.12, 19.67, 19.22, 18.33, 17.43, 16.99, 16.54, 16.54, 16.99, 16.99, 16.99, 17.43, 17.88, 18.33, 18.33, 18.33, 18.33, 17.88, 17.88, 17.88, 18.33, 18.33, 18.78, 18.78, 18.78, 18.33, 18.78, 18.78, 18.78, 30.4, 29.95, 29.95, 29.95, 29.95, 29.95, 29.5, 29.5, 29.5, 29.5, 29.06, 29.06, 29.06, 29.06, 29.06, 28.61, 28.61, 28.61, 28.61, 28.61, 28.16, 28.16, 28.16, 28.16, 28.16, 28.16, 28.16, 28.61, 28.16, 27.72, 27.72, 28.16, 28.16, 27.72, 27.72, 27.27, 27.27, 27.27, 26.82, 26.37, 26.37, 26.37, 26.37, 26.37, 26.37, 26.37, 25.93, 25.93, 25.48, 25.03, 24.59, 24.14, 23.69, 23.69, 23.25, 23.25, 23.25, 23.25, 23.25, 22.8, 22.35, 21.9, 21.46, 21.01, 21.01, 21.01, 20.56, 20.12, 20.12, 20.12, 19.67, 19.22, 18.33, 17.43, 16.54, 16.54, 16.99, 16.99, 16.99, 16.99, 16.99, 17.88, 18.33, 18.33, 18.33, 17.88, 17.88, 17.88, 17.88, 18.33, 18.33, 18.33, 18.78, 18.78, 18.33, 18.33, 18.78, 18.78, 30.84, 30.4, 30.4, 30.4, 30.4, 30.4, 29.95, 29.95, 29.95, 29.5, 29.5, 29.5, 29.5, 29.5, 29.06, 29.06, 29.06, 28.61, 28.61, 28.61, 28.16, 28.16, 28.16, 28.16, 28.16, 28.16, 28.16, 28.16, 28.16, 27.72, 27.72, 27.72, 28.16, 27.72, 27.72, 26.82, 26.82, 27.27, 26.82, 26.37, 26.37, 26.37, 26.37, 26.37, 26.37, 26.37, 25.93, 25.93, 25.93, 25.48, 25.03, 24.59, 23.69, 23.25, 23.25, 22.8, 22.8, 22.8, 22.8, 22.8, 22.35, 21.46, 21.01, 21.01, 21.01, 20.56, 20.12, 19.67, 19.67, 19.67, 19.67, 19.22, 18.33, 16.99, 16.09, 16.54, 16.99, 16.99, 16.54, 16.54, 16.99, 17.88, 18.33, 18.33, 18.33, 17.88, 17.88, 17.88, 17.88, 17.88, 18.33, 18.33, 18.33, 18.33, 18.33, 18.33, 18.78, 19.22, 31.29, 30.84, 30.84, 30.84, 30.84, 30.84, 30.4, 30.4, 30.4, 29.95, 29.95, 29.5, 29.5, 29.5, 29.5, 29.06, 29.06, 29.06, 28.61, 28.61, 28.16, 28.16, 28.16, 28.16, 28.16, 28.16, 28.16, 28.16, 28.16, 28.16, 27.72, 27.72, 28.16, 27.72, 27.72, 27.27, 26.82, 27.27, 26.82, 26.82, 26.82, 26.37, 26.37, 26.37, 26.37, 26.37, 25.93, 25.93, 25.93, 25.48, 25.48, 25.03, 24.59, 24.14, 24.14, 23.69, 23.25, 22.8, 22.8, 23.25, 22.35, 21.46, 21.01, 21.46, 21.01, 20.56, 19.67, 18.78, 18.78, 18.78, 18.78, 18.33, 17.43, 16.54, 16.09, 16.54, 16.99, 16.54, 16.54, 16.54, 17.43, 17.43, 17.88, 17.88, 17.88, 17.88, 17.88, 17.88, 17.88, 17.88, 18.33, 18.33, 18.33, 18.33, 18.33, 18.78, 18.78, 19.22, 31.74, 31.29, 31.29, 31.29, 31.29, 30.84, 30.84, 30.84, 30.4, 29.95, 29.95, 29.5, 29.5, 29.5, 29.5, 29.5, 29.06, 29.06, 29.06, 28.61, 28.61, 28.16, 28.16, 28.16, 28.16, 28.16, 28.16, 28.16, 28.16, 28.16, 27.72, 27.72, 27.72, 27.72, 27.27, 27.27, 27.27, 27.27, 26.82, 26.82, 26.37, 26.37, 26.37, 26.37, 26.37, 26.37, 25.93, 25.93, 25.93, 25.93, 25.93, 25.48, 25.03, 25.48, 25.03, 25.03, 24.59, 23.69, 23.69, 23.69, 23.25, 22.35, 21.9, 21.9, 21.46, 21.01, 20.12, 19.22, 18.33, 17.43, 16.99, 16.54, 15.65, 15.2, 16.09, 16.54, 16.99, 16.54, 16.54, 16.99, 17.43, 17.88, 17.88, 17.88, 17.88, 17.43, 17.88, 17.88, 17.88, 17.88, 18.33, 18.33, 18.33, 18.33, 18.33, 18.78, 18.78, 19.22, 32.19, 31.74, 31.74, 31.74, 31.29, 31.29, 30.84, 30.84, 30.4, 30.4, 29.95, 29.95, 29.5, 29.5, 29.5, 29.5, 29.5, 29.5, 29.06, 29.06, 28.61, 28.16, 28.16, 28.16, 28.16, 28.16, 28.16, 28.16, 28.16, 28.16, 27.72, 27.72, 27.72, 27.27, 27.27, 27.27, 27.27, 26.82, 26.82, 26.82, 26.37, 26.37, 25.93, 25.93, 26.37, 25.93, 25.93, 25.93, 25.93, 25.93, 25.93, 25.48, 25.03, 25.48, 25.48, 25.48, 25.48, 24.59, 24.14, 24.59, 24.59, 23.69, 23.25, 22.8, 22.35, 22.35, 21.46, 20.56, 19.67, 18.33, 16.99, 15.2, 14.3, 14.3, 15.65, 16.54, 16.99, 16.99, 16.54, 16.99, 17.43, 17.88, 17.88, 17.88, 17.43, 17.43, 17.43, 17.88, 17.88, 17.88, 18.33, 18.33, 18.33, 18.33, 18.33, 18.78, 18.78, 19.22, 32.19, 32.19, 31.74, 31.74, 31.74, 31.29, 31.29, 30.84, 30.4, 30.4, 29.95, 29.95, 29.95, 29.5, 29.5, 29.5, 29.5, 29.5, 29.06, 29.06, 29.06, 28.61, 28.61, 28.16, 28.16, 28.16, 28.16, 28.16, 28.16, 28.16, 27.72, 27.72, 27.72, 27.72, 27.27, 27.27, 27.27, 26.82, 26.82, 26.82, 26.37, 26.37, 26.37, 26.37, 25.93, 25.93, 25.93, 25.93, 25.93, 25.93, 25.48, 25.03, 25.03, 25.48, 25.48, 25.48, 25.48, 25.03, 24.59, 24.59, 25.03, 24.59, 24.14, 23.69, 23.25, 23.25, 22.35, 21.9, 21.01, 20.12, 18.33, 16.09, 14.3, 14.75, 16.09, 16.99, 16.99, 16.99, 16.99, 16.99, 17.43, 17.88, 17.88, 17.88, 17.43, 17.43, 17.43, 17.88, 17.88, 17.88, 17.88, 18.33, 18.78, 18.33, 18.78, 19.22, 19.22, 19.22, 32.63, 32.19, 32.19, 31.74, 31.74, 31.29, 31.29, 30.84, 30.84, 30.4, 30.4, 29.95, 29.95, 29.95, 29.5, 29.5, 29.5, 29.5, 29.5, 29.06, 29.06, 28.61, 28.61, 28.61, 28.61, 28.16, 28.16, 28.16, 28.16, 28.16, 27.72, 27.72, 27.72, 27.72, 27.27, 27.27, 27.27, 27.27, 26.82, 26.82, 26.82, 26.37, 26.37, 26.37, 25.93, 25.93, 25.93, 25.93, 25.93, 25.48, 25.48, 25.03, 25.03, 25.03, 25.48, 25.03, 25.03, 25.03, 24.59, 24.59, 24.59, 24.59, 24.59, 24.14, 23.69, 23.69, 23.25, 22.8, 21.9, 21.01, 20.12, 17.88, 16.54, 16.09, 16.99, 17.43, 16.99, 16.99, 16.99, 16.99, 17.43, 17.43, 17.43, 16.99, 16.99, 16.99, 17.43, 17.43, 17.88, 17.88, 17.88, 18.78, 18.33, 18.33, 18.78, 19.22, 19.22, 19.22, 32.63, 32.19, 32.19, 31.74, 31.74, 31.29, 31.29, 30.84, 30.84, 30.4, 30.4, 29.95, 29.95, 29.95, 29.5, 29.5, 29.5, 29.5, 29.5, 29.06, 29.06, 29.06, 28.61, 28.61, 28.61, 28.61, 28.16, 28.16, 28.16, 28.16, 28.16, 28.16, 27.72, 27.72, 27.72, 27.72, 27.27, 27.27, 27.27, 26.82, 26.82, 26.82, 26.37, 26.37, 25.93, 25.93, 25.93, 25.48, 25.48, 25.48, 25.48, 25.03, 25.03, 25.03, 25.03, 25.03, 24.59, 24.59, 24.59, 24.59, 24.59, 24.59, 24.59, 24.14, 24.14, 23.69, 23.69, 23.69, 22.8, 22.35, 21.01, 19.22, 17.88, 17.88, 17.88, 17.88, 17.43, 16.99, 16.54, 16.54, 16.54, 16.54, 16.99, 16.54, 16.54, 16.99, 17.43, 17.88, 17.88, 17.88, 18.33, 18.78, 18.78, 18.78, 18.78, 19.22, 19.22, 19.22, 32.63, 32.19, 32.19, 31.74, 31.74, 31.29, 31.29, 30.84, 30.84, 30.4, 30.4, 30.4, 29.95, 29.95, 29.5, 29.5, 29.5, 29.5, 29.5, 29.5, 29.06, 29.06, 29.06, 28.61, 28.61, 28.61, 28.61, 28.16, 28.16, 28.16, 28.16, 28.16, 28.16, 27.72, 27.72, 27.72, 27.27, 27.27, 27.27, 26.82, 26.82, 26.82, 26.37, 26.37, 25.93, 25.93, 25.93, 25.48, 25.48, 25.48, 25.03, 25.03, 25.03, 25.03, 25.03, 25.03, 24.59, 24.59, 24.59, 24.59, 24.59, 24.14, 24.14, 24.14, 24.14, 24.14, 24.14, 23.69, 23.69, 22.8, 21.9, 20.12, 19.22, 18.78, 18.78, 18.78, 17.88, 16.99, 16.09, 15.65, 15.2, 15.65, 16.09, 16.99, 16.99, 17.43, 17.43, 17.43, 17.88, 17.88, 18.33, 18.33, 18.78, 18.78, 19.22, 19.22, 19.22, 19.22, 32.63, 32.19, 32.19, 31.74, 31.74, 31.29, 30.84, 30.84, 30.84, 30.4, 30.4, 30.4, 29.95, 29.95, 29.95, 29.5, 29.5, 29.5, 29.5, 29.5, 29.06, 29.06, 29.06, 29.06, 28.61, 28.61, 28.61, 28.61, 28.16, 28.16, 28.16, 28.16, 28.16, 28.16, 27.72, 27.72, 27.72, 27.27, 27.27, 26.82, 26.82, 26.82, 26.37, 26.37, 25.93, 25.93, 25.93, 25.48, 25.48, 25.48, 25.03, 25.03, 25.03, 25.03, 25.03, 24.59, 24.59, 24.59, 24.59, 24.59, 24.14, 24.14, 24.14, 24.14, 24.14, 24.14, 24.14, 24.14, 23.69, 23.25, 22.8, 21.46, 20.12, 19.22, 19.22, 19.22, 18.78, 17.43, 16.54, 16.09, 15.2, 16.09, 16.54, 16.99, 17.43, 17.43, 17.43, 17.88, 17.88, 18.33, 18.33, 18.33, 18.78, 19.22, 19.22, 19.22, 19.22, 19.22, 32.63, 32.19, 32.19, 31.74, 31.29, 31.29, 30.84, 30.84, 30.84, 30.84, 30.4, 30.4, 30.4, 29.95, 29.95, 29.95, 29.5, 29.95, 29.5, 29.5, 29.5, 29.5, 29.06, 29.06, 29.06, 28.61, 28.61, 28.16, 28.16, 28.61, 28.16, 28.16, 28.16, 28.16, 27.72, 27.72, 27.72, 27.72, 27.27, 27.27, 26.82, 26.82, 26.82, 26.37, 26.37, 25.93, 25.93, 25.93, 25.48, 25.48, 25.48, 25.03, 25.03, 25.03, 25.03, 24.59, 24.59, 24.59, 24.59, 24.14, 24.14, 24.14, 24.14, 24.14, 24.14, 24.14, 24.14, 23.69, 23.69, 23.69, 22.8, 21.9, 20.12, 19.22, 19.67, 19.22, 18.78, 18.33, 16.99, 16.54, 16.09, 16.09, 16.54, 17.43, 17.43, 17.88, 17.88, 18.33, 18.33, 18.33, 18.78, 18.78, 18.78, 19.22, 19.22, 18.78, 18.78, 18.78, 32.19, 32.19, 31.74, 31.74, 31.29, 31.29, 30.84, 30.84, 30.84, 30.84, 30.4, 30.4, 30.4, 29.95, 29.95, 29.95, 29.95, 29.95, 29.95, 29.5, 29.5, 29.5, 29.06, 29.06, 29.06, 28.61, 28.61, 28.61, 28.16, 28.16, 28.16, 28.16, 28.16, 28.16, 28.16, 27.72, 27.72, 27.72, 27.27, 27.27, 27.27, 26.82, 26.82, 26.37, 26.37, 26.37, 25.93, 25.93, 25.48, 25.48, 25.48, 25.03, 25.03, 25.03, 25.03, 24.59, 24.59, 24.59, 24.59, 24.59, 24.14, 24.14, 24.14, 24.14, 24.14, 24.14, 24.14, 24.14, 23.69, 23.69, 22.8, 21.46, 19.67, 18.78, 19.22, 19.22, 19.22, 18.78, 18.33, 17.43, 16.99, 16.99, 16.99, 17.43, 17.43, 17.88, 18.33, 18.78, 18.78, 18.78, 19.22, 18.78, 18.78, 19.22, 19.22, 18.78, 18.78, 18.78, 32.19, 32.19, 31.74, 31.74, 31.29, 31.29, 30.84, 30.84, 30.84, 30.84, 30.4, 30.4, 30.4, 30.4, 29.95, 29.95, 29.95, 29.95, 29.95, 29.5, 29.5, 29.5, 29.06, 29.06, 29.06, 28.61, 28.61, 28.61, 28.61, 28.16, 28.16, 28.16, 28.16, 28.16, 28.16, 27.72, 27.72, 27.72, 27.27, 27.27, 27.27, 26.82, 26.82, 26.37, 26.37, 26.37, 25.93, 25.93, 25.93, 25.48, 25.48, 25.48, 25.03, 25.03, 25.03, 25.03, 24.59, 24.59, 24.59, 24.59, 24.14, 24.14, 24.14, 24.14, 24.14, 24.14, 24.14, 24.14, 24.14, 23.69, 23.25, 21.9, 18.78, 16.99, 18.78, 19.22, 19.67, 19.67, 19.22, 18.78, 18.33, 17.88, 17.43, 17.43, 17.88, 18.33, 18.78, 18.78, 18.78, 19.22, 19.22, 19.22, 18.78, 19.22, 19.22, 18.78, 18.78, 18.78, 32.19, 32.19, 32.19, 31.74, 31.29, 31.29, 30.84, 30.84, 30.84, 30.84, 30.84, 30.4, 30.4, 30.4, 30.4, 29.95, 29.95, 29.95, 29.95, 29.95, 29.5, 29.5, 29.5, 29.06, 29.06, 29.06, 28.61, 28.61, 28.61, 28.16, 28.16, 28.16, 28.16, 28.16, 28.16, 27.72, 27.72, 27.72, 27.27, 27.27, 26.82, 26.82, 26.82, 26.37, 26.37, 26.37, 25.93, 25.93, 25.93, 25.48, 25.48, 25.48, 25.48, 25.03, 25.03, 25.03, 24.59, 24.14, 24.14, 24.59, 24.14, 24.14, 24.14, 24.14, 24.14, 24.14, 24.14, 24.14, 24.14, 24.14, 23.69, 22.8, 16.09, 17.43, 18.33, 18.78, 20.12, 20.12, 20.12, 19.67, 18.78, 18.33, 18.33, 18.33, 18.33, 18.33, 18.33, 18.33, 18.33, 18.78, 19.22, 19.22, 19.22, 19.22, 19.22, 19.22, 18.78, 18.78, 32.19, 32.19, 31.74, 31.74, 31.29, 31.29, 30.84, 30.84, 30.84, 30.84, 30.84, 30.84, 30.4, 30.4, 30.4, 30.4, 30.4, 29.95, 29.95, 29.95, 29.95, 29.5, 29.5, 29.5, 29.06, 29.06, 29.06, 28.61, 28.61, 28.16, 28.16, 28.16, 28.16, 28.16, 28.16, 27.72, 27.72, 27.72, 27.27, 27.27, 26.82, 26.82, 26.82, 26.82, 26.37, 26.37, 25.93, 25.93, 25.93, 25.93, 25.48, 25.48, 25.48, 25.48, 25.03, 25.03, 25.03, 24.59, 24.14, 24.14, 24.14, 24.14, 24.14, 24.14, 24.14, 24.14, 24.14, 24.14, 24.14, 24.14, 24.14, 21.46, 18.33, 17.88, 17.88, 18.78, 19.67, 20.12, 20.12, 20.12, 19.67, 19.22, 18.78, 18.78, 18.78, 18.33, 18.33, 18.33, 18.33, 18.33, 19.22, 19.67, 19.67, 19.67, 19.67, 19.22, 19.22, 19.22, 32.19, 32.19, 31.74, 31.74, 31.74, 31.29, 30.84, 30.84, 30.84, 30.84, 30.84, 30.84, 30.84, 30.4, 30.4, 30.4, 30.4, 30.4, 29.95, 29.95, 29.95, 29.5, 29.5, 29.5, 29.06, 29.06, 29.06, 28.61, 28.61, 28.61, 28.16, 28.16, 28.16, 28.16, 28.16, 27.72, 27.72, 27.72, 27.27, 27.27, 26.82, 26.82, 26.82, 26.82, 26.37, 26.37, 26.37, 25.93, 25.93, 25.93, 25.48, 25.48, 25.48, 25.48, 25.48, 25.03, 25.03, 25.03, 24.59, 24.14, 24.14, 24.59, 24.59, 24.14, 24.14, 24.14, 24.14, 24.14, 24.14, 24.14, 23.69, 22.8, 21.01, 19.22, 17.88, 18.33, 18.78, 19.22, 20.12, 20.12, 20.12, 19.22, 19.22, 19.22, 19.22, 18.78, 18.33, 18.33, 18.33, 18.33, 18.33, 19.22, 19.67, 20.12, 20.12, 19.67, 19.22, 19.22, 32.19, 32.19, 31.74, 31.74, 31.74, 31.29, 31.29, 30.84, 30.84, 30.84, 30.84, 30.84, 30.84, 30.84, 30.4, 30.4, 30.4, 30.4, 29.95, 29.95, 29.95, 29.95, 29.5, 29.5, 29.5, 29.06, 29.06, 28.61, 28.61, 28.61, 28.16, 28.16, 28.16, 28.16, 28.16, 27.72, 27.72, 27.72, 27.27, 27.27, 26.82, 26.82, 26.82, 26.82, 26.37, 26.37, 26.37, 25.93, 25.93, 25.93, 25.48, 25.48, 25.48, 25.48, 25.48, 25.03, 25.03, 25.03, 25.03, 24.59, 24.14, 24.14, 24.59, 24.14, 24.14, 24.14, 24.14, 24.14, 24.14, 23.69, 23.69, 23.25, 22.35, 20.56, 19.22, 17.88, 18.33, 19.22, 19.67, 20.12, 19.67, 19.22, 19.22, 19.22, 19.22, 18.78, 18.78, 18.78, 18.78, 18.78, 18.78, 18.78, 19.22, 19.67, 20.12, 19.67, 19.67, 19.67, 32.19, 32.19, 31.74, 31.74, 31.74, 31.29, 31.29, 31.29, 30.84, 30.84, 30.84, 30.84, 30.84, 30.84, 30.84, 30.4, 30.4, 30.4, 30.4, 29.95, 29.95, 29.95, 29.5, 29.5, 29.5, 29.06, 29.06, 28.61, 28.61, 28.61, 28.16, 28.61, 28.16, 28.16, 28.16, 27.72, 27.72, 27.27, 27.27, 27.27, 26.82, 26.82, 26.82, 26.82, 26.37, 26.37, 26.37, 25.93, 25.93, 25.93, 25.93, 25.48, 25.48, 25.48, 25.48, 25.03, 25.03, 25.03, 25.03, 25.03, 24.59, 24.59, 24.59, 24.59, 24.14, 24.14, 24.14, 24.14, 24.14, 23.69, 23.69, 23.25, 22.8, 21.9, 20.56, 18.33, 18.33, 19.67, 20.12, 19.67, 19.22, 19.22, 19.22, 19.67, 19.22, 18.78, 18.78, 18.78, 19.22, 19.22, 19.22, 18.78, 18.78, 19.22, 19.67, 19.67, 19.67, 19.67, 32.19, 32.19, 31.74, 31.74, 31.74, 31.29, 31.29, 31.29, 31.29, 30.84, 30.84, 30.84, 30.84, 30.84, 30.84, 30.84, 30.4, 30.4, 30.4, 29.95, 29.95, 29.95, 29.95, 29.5, 29.5, 29.06, 29.06, 28.61, 28.61, 28.61, 28.61, 28.61, 28.16, 28.16, 28.16, 27.72, 27.72, 27.27, 27.27, 27.27, 26.82, 26.82, 26.82, 26.37, 26.37, 26.37, 26.37, 26.37, 25.93, 25.93, 25.93, 25.93, 25.48, 25.48, 25.48, 25.48, 25.03, 25.03, 25.03, 25.03, 25.03, 24.59, 24.59, 24.59, 24.59, 24.59, 24.14, 24.14, 24.14, 23.69, 23.25, 23.25, 22.8, 22.35, 21.46, 19.22, 18.78, 19.67, 20.12, 19.67, 19.22, 19.22, 19.22, 19.67, 19.22, 19.22, 19.22, 19.22, 19.22, 19.67, 19.67, 19.22, 18.33, 18.33, 18.78, 18.78, 19.22, 19.22, 32.19, 32.19, 31.74, 31.74, 31.74, 31.29, 31.29, 31.29, 31.29, 31.29, 31.29, 31.29, 30.84, 30.84, 30.84, 30.84, 30.4, 30.4, 30.4, 30.4, 29.95, 29.95, 29.95, 29.5, 29.5, 29.06, 29.06, 28.61, 28.61, 28.61, 28.61, 28.61, 28.16, 28.16, 28.16, 27.72, 27.72, 27.27, 27.27, 27.27, 26.82, 26.82, 26.82, 26.37, 26.37, 26.37, 26.37, 26.37, 26.37, 25.93, 25.93, 25.93, 25.48, 25.48, 25.48, 25.48, 25.48, 25.03, 25.03, 25.03, 25.03, 24.59, 24.59, 24.59, 24.59, 24.59, 24.14, 24.14, 24.14, 23.69, 23.69, 23.25, 22.8, 22.35, 21.01, 19.67, 19.22, 19.22, 19.22, 19.67, 19.67, 19.67, 19.67, 19.67, 19.22, 19.22, 19.22, 19.22, 19.67, 19.67, 19.67, 19.22, 18.33, 17.88, 17.88, 17.88, 18.33, 18.33, 32.19, 32.19, 32.19, 31.74, 31.74, 31.29, 31.29, 31.29, 31.29, 31.29, 31.29, 31.29, 31.29, 30.84, 30.84, 30.84, 30.4, 30.4, 30.4, 30.4, 29.95, 29.95, 29.5, 29.5, 29.5, 29.06, 29.06, 28.61, 28.61, 28.61, 28.61, 28.61, 28.16, 28.16, 27.72, 27.72, 27.72, 27.27, 27.27, 27.27, 26.82, 26.82, 26.82, 26.82, 26.37, 26.37, 26.37, 26.37, 26.37, 25.93, 25.93, 25.93, 25.93, 25.48, 25.48, 25.48, 25.48, 25.48, 25.48, 25.48, 25.03, 24.59, 25.03, 25.03, 24.59, 24.59, 24.14, 24.14, 23.69, 24.14, 23.69, 23.25, 22.35, 21.46, 20.12, 19.67, 19.67, 19.67, 18.33, 18.78, 20.12, 20.56, 20.56, 20.12, 19.22, 19.22, 19.67, 19.67, 20.12, 20.12, 19.67, 19.22, 17.88, 17.43, 17.43, 17.43, 17.88, 17.88, 32.19, 32.19, 32.19, 31.74, 31.74, 31.74, 31.29, 31.29, 31.29, 31.29, 31.29, 31.29, 31.29, 30.84, 30.84, 30.84, 30.4, 30.4, 30.4, 30.4, 29.95, 29.95, 29.5, 29.5, 29.06, 29.06, 28.61, 28.61, 28.61, 28.61, 28.61, 28.16, 28.16, 28.16, 27.72, 27.72, 27.72, 27.27, 27.27, 26.82, 26.82, 26.82, 26.82, 26.82, 26.37, 26.37, 25.93, 26.37, 26.37, 25.93, 25.93, 25.93, 25.93, 25.48, 25.48, 25.48, 25.48, 25.48, 25.48, 25.48, 25.03, 25.03, 25.03, 25.03, 25.03, 25.03, 24.59, 24.14, 23.69, 23.69, 24.14, 23.69, 22.35, 20.56, 18.78, 19.22, 20.12, 20.12, 19.22, 18.33, 19.67, 21.01, 20.56, 20.12, 19.67, 19.67, 19.67, 20.12, 20.12, 20.12, 19.67, 18.78, 17.88, 17.43, 16.99, 16.99, 17.43, 17.43, 32.19, 32.19, 32.19, 32.19, 31.74, 31.74, 31.74, 31.29, 31.29, 31.29, 31.29, 31.29, 31.29, 30.84, 30.84, 30.84, 30.4, 30.4, 30.4, 30.4, 29.95, 29.95, 29.5, 29.5, 29.06, 29.06, 28.61, 28.61, 28.61, 28.61, 28.61, 28.16, 28.16, 27.72, 27.72, 27.72, 27.27, 27.27, 27.27, 26.82, 26.82, 26.82, 26.82, 26.82, 26.37, 26.37, 26.37, 26.37, 26.37, 25.93, 25.93, 25.93, 25.93, 25.93, 25.48, 25.48, 25.48, 25.48, 25.48, 25.48, 25.03, 25.03, 25.03, 25.03, 25.03, 25.03, 25.03, 24.59, 24.14, 23.69, 23.69, 23.69, 22.8, 21.01, 18.33, 18.33, 19.67, 20.12, 19.67, 19.22, 19.67, 20.56, 20.56, 20.12, 20.12, 20.12, 20.12, 20.56, 20.56, 20.12, 19.67, 18.78, 17.88, 17.43, 16.99, 16.99, 16.99, 16.99, 32.19, 32.19, 32.19, 32.19, 31.74, 31.74, 31.74, 31.74, 31.29, 31.29, 31.29, 31.29, 31.29, 31.29, 30.84, 30.84, 30.4, 30.4, 30.4, 29.95, 29.95, 29.95, 29.5, 29.5, 29.06, 29.06, 28.61, 28.61, 28.61, 28.61, 28.61, 28.16, 28.16, 27.72, 27.72, 27.72, 27.27, 27.27, 27.27, 26.82, 26.82, 26.82, 26.82, 26.82, 26.37, 26.37, 26.37, 26.37, 25.93, 25.93, 25.93, 25.93, 25.93, 25.93, 25.48, 25.48, 25.48, 25.48, 25.48, 25.48, 25.48, 25.03, 25.03, 25.03, 25.03, 25.03, 24.59, 24.59, 24.59, 24.14, 23.69, 23.69, 22.8, 21.46, 19.22, 18.33, 19.22, 19.22, 19.22, 19.67, 20.12, 20.12, 20.12, 20.12, 20.12, 20.56, 21.01, 21.01, 20.56, 20.12, 19.67, 18.78, 18.33, 17.88, 17.43, 16.99, 16.99, 16.99, 32.19, 32.19, 32.19, 32.19, 31.74, 31.74, 31.74, 31.74, 31.74, 31.74, 31.74, 31.29, 31.29, 31.29, 30.84, 30.84, 30.4, 30.4, 30.4, 29.95, 29.95, 29.95, 29.5, 29.5, 29.06, 28.61, 28.61, 28.61, 28.61, 28.61, 28.61, 28.16, 28.16, 27.72, 27.72, 27.72, 27.27, 27.27, 27.27, 26.82, 26.82, 26.82, 26.82, 26.82, 26.37, 26.37, 26.37, 26.37, 25.93, 25.93, 25.93, 25.93, 25.93, 25.93, 25.48, 25.48, 25.48, 25.48, 25.48, 25.48, 25.48, 25.03, 25.03, 25.03, 25.03, 25.03, 24.59, 24.59, 24.59, 24.14, 24.14, 23.69, 22.8, 21.9, 20.56, 18.78, 18.33, 18.33, 18.78, 19.67, 20.12, 20.12, 19.67, 19.67, 20.56, 21.01, 21.01, 21.01, 20.56, 20.12, 19.67, 19.22, 18.78, 18.78, 18.33, 17.43, 17.43, 17.43, 32.19, 32.19, 32.19, 32.19, 32.19, 31.74, 31.74, 31.74, 31.74, 31.74, 31.74, 31.29, 31.29, 31.29, 30.84, 30.84, 30.4, 30.4, 30.4, 29.95, 29.95, 29.95, 29.5, 29.5, 29.06, 28.61, 28.61, 28.61, 28.61, 28.61, 28.16, 28.16, 28.16, 27.72, 27.72, 27.72, 27.27, 27.27, 27.27, 26.82, 26.82, 26.82, 26.82, 26.82, 26.37, 26.37, 26.37, 26.37, 25.93, 25.93, 25.93, 25.93, 25.93, 25.93, 25.93, 25.48, 25.48, 25.48, 25.48, 25.48, 25.48, 25.03, 25.03, 25.03, 25.03, 25.03, 25.03, 24.59, 24.59, 24.59, 24.14, 23.69, 22.8, 21.9, 21.01, 19.67, 18.33, 17.88, 17.88, 19.22, 19.67, 19.67, 19.67, 19.67, 20.56, 21.01, 21.46, 21.01, 20.56, 20.12, 19.67, 19.67, 19.67, 19.22, 19.22, 18.78, 17.88, 17.88, 32.63, 32.63, 32.19, 32.19, 32.19, 31.74, 31.74, 31.74, 31.74, 31.74, 31.74, 31.29, 31.29, 30.84, 30.84, 30.84, 30.4, 30.4, 29.95, 29.95, 29.95, 29.5, 29.5, 29.5, 29.06, 28.61, 28.61, 28.61, 28.61, 28.61, 28.16, 28.16, 28.16, 27.72, 27.72, 27.72, 27.27, 27.27, 26.82, 26.82, 26.82, 26.82, 26.82, 26.82, 26.37, 26.37, 26.37, 26.37, 25.93, 25.93, 25.93, 25.93, 25.93, 25.93, 25.93, 25.93, 25.48, 25.48, 25.48, 25.48, 25.48, 25.48, 25.03, 25.03, 25.03, 25.03, 25.03, 24.59, 24.59, 24.59, 24.14, 23.69, 22.8, 21.9, 21.01, 20.56, 19.22, 17.88, 17.43, 18.78, 19.67, 19.67, 19.67, 20.12, 20.56, 21.01, 21.46, 21.01, 20.56, 20.12, 19.67, 20.12, 20.12, 19.67, 19.67, 19.22, 18.33, 18.33, 32.63, 32.63, 32.19, 32.19, 32.19, 31.74, 31.74, 31.74, 31.74, 31.74, 31.29, 31.29, 31.29, 30.84, 30.84, 30.84, 30.4, 30.4, 29.95, 29.95, 29.95, 29.5, 29.5, 29.06, 29.06, 29.06, 28.61, 28.61, 28.61, 28.16, 28.16, 28.16, 27.72, 27.72, 27.72, 27.72, 27.27, 27.27, 26.82, 26.82, 26.82, 26.82, 26.82, 26.37, 26.37, 26.37, 26.37, 26.37, 26.37, 25.93, 25.93, 25.93, 25.93, 25.93, 25.93, 25.93, 25.93, 25.48, 25.48, 25.48, 25.48, 25.48, 25.03, 25.03, 25.03, 25.03, 25.03, 24.59, 24.59, 24.59, 24.14, 24.14, 23.25, 21.9, 21.01, 20.56, 19.67, 18.78, 18.33, 18.78, 19.22, 19.22, 19.22, 20.12, 21.01, 21.46, 21.46, 21.01, 20.12, 20.12, 20.12, 20.12, 20.12, 20.12, 19.67, 19.22, 18.78, 18.78, 32.63, 32.63, 32.19, 32.19, 32.19, 31.74, 31.74, 31.74, 31.74, 31.74, 31.29, 31.29, 30.84, 30.84, 30.84, 30.4, 30.4, 29.95, 29.95, 29.95, 29.5, 29.5, 29.5, 29.06, 29.06, 29.06, 28.61, 28.61, 28.61, 28.16, 28.16, 27.72, 27.72, 27.72, 27.72, 27.72, 27.27, 27.27, 27.27, 26.82, 26.82, 26.82, 26.82, 26.37, 26.37, 26.37, 26.37, 26.37, 26.37, 25.93, 25.93, 25.93, 25.93, 25.93, 25.93, 25.93, 25.93, 25.48, 25.48, 25.48, 25.48, 25.48, 25.03, 25.03, 25.03, 25.03, 24.59, 24.59, 24.59, 24.59, 24.59, 24.14, 23.69, 22.35, 21.01, 20.12, 19.22, 18.78, 18.78, 19.22, 19.22, 18.78, 19.22, 20.56, 21.01, 21.46, 21.01, 20.56, 20.12, 20.12, 20.56, 20.56, 20.12, 20.12, 19.67, 19.67, 19.22, 18.78, 32.63, 32.63, 32.19, 32.19, 32.19, 31.74, 31.74, 31.74, 31.74, 31.74, 31.29, 31.29, 30.84, 30.84, 30.84, 30.4, 30.4, 30.4, 29.95, 29.95, 29.5, 29.5, 29.5, 29.06, 29.06, 28.61, 28.61, 28.61, 28.16, 28.16, 28.16, 27.72, 27.72, 27.72, 27.72, 27.72, 27.27, 27.27, 27.27, 26.82, 26.82, 26.82, 26.82, 26.82, 26.37, 26.37, 26.37, 26.37, 26.37, 25.93, 25.93, 25.93, 25.93, 25.93, 25.93, 25.93, 25.93, 25.48, 25.48, 25.48, 25.48, 25.48, 25.03, 25.03, 25.03, 25.03, 24.59, 24.59, 24.59, 24.14, 24.14, 24.14, 23.69, 22.8, 21.46, 20.12, 18.78, 17.88, 18.33, 19.22, 19.67, 19.67, 20.12, 21.01, 21.46, 21.01, 21.01, 20.56, 20.56, 20.56, 20.56, 20.56, 20.12, 20.12, 19.67, 19.67, 19.67, 19.22, 32.63, 32.63, 32.19, 32.19, 32.19, 31.74, 31.74, 31.74, 31.74, 31.29, 31.29, 31.29, 30.84, 30.84, 30.84, 30.4, 30.4, 30.4, 29.95, 29.95, 29.5, 29.5, 29.06, 29.06, 28.61, 28.61, 28.61, 28.16, 28.16, 28.16, 28.16, 28.16, 27.72, 27.72, 27.72, 27.72, 27.27, 27.27, 27.27, 27.27, 26.82, 26.82, 26.82, 26.82, 26.37, 25.93, 26.37, 26.37, 26.37, 25.93, 25.93, 25.93, 25.93, 25.93, 25.93, 25.93, 25.93, 25.48, 25.48, 25.48, 25.48, 25.03, 25.03, 25.03, 25.03, 24.59, 24.59, 24.59, 24.59, 24.14, 24.14, 24.14, 24.14, 23.69, 22.8, 21.01, 18.78, 17.43, 17.43, 18.33, 19.22, 19.67, 21.01, 21.46, 21.46, 21.01, 20.56, 20.56, 20.56, 20.56, 20.56, 20.56, 20.12, 19.67, 19.67, 19.67, 19.67, 19.67, 32.19, 32.19, 32.19, 32.19, 32.19, 31.74, 31.74, 31.74, 31.29, 31.29, 31.29, 31.29, 30.84, 30.84, 30.4, 30.4, 30.4, 29.95, 29.95, 29.5, 29.5, 29.5, 29.06, 29.06, 28.61, 28.61, 28.61, 28.16, 28.16, 28.16, 28.16, 28.16, 27.72, 27.72, 27.72, 27.72, 27.27, 27.27, 27.27, 27.27, 26.82, 26.82, 26.82, 26.82, 26.37, 26.37, 26.37, 26.37, 26.37, 26.37, 25.93, 25.93, 25.93, 25.93, 25.93, 25.93, 25.48, 25.48, 25.48, 25.48, 25.48, 25.03, 25.03, 25.03, 24.59, 24.59, 24.59, 24.59, 24.59, 24.14, 24.14, 24.14, 23.69, 23.69, 23.25, 22.35, 20.56, 18.78, 17.43, 17.43, 17.88, 19.22, 21.01, 21.46, 21.46, 21.01, 20.56, 20.56, 20.56, 20.56, 20.56, 20.12, 19.67, 19.67, 19.67, 20.12, 20.12, 20.12, 32.19, 32.19, 32.19, 32.19, 32.19, 31.74, 31.74, 31.74, 31.29, 31.29, 31.29, 30.84, 30.84, 30.84, 30.4, 30.4, 30.4, 29.95, 29.95, 29.5, 29.5, 29.5, 29.06, 28.61, 28.61, 28.61, 28.16, 28.16, 28.16, 28.16, 28.16, 28.16, 28.16, 27.72, 27.72, 27.27, 27.27, 27.27, 27.27, 27.27, 27.27, 26.82, 26.82, 26.82, 26.37, 26.37, 26.37, 26.37, 26.37, 26.37, 25.93, 25.93, 25.93, 25.93, 25.93, 25.93, 25.48, 25.48, 25.48, 25.48, 25.03, 25.03, 25.03, 25.03, 24.59, 24.59, 24.59, 24.59, 24.59, 24.14, 24.14, 24.14, 23.69, 23.69, 23.25, 22.8, 21.9, 20.56, 18.78, 17.43, 16.99, 18.33, 20.12, 21.01, 21.01, 20.56, 20.56, 20.56, 20.56, 20.56, 20.12, 19.67, 19.67, 19.67, 19.67, 19.67, 19.67, 19.67, 32.19, 32.19, 32.19, 32.19, 31.74, 31.74, 31.74, 31.29, 31.29, 31.29, 31.29, 30.84, 30.84, 30.84, 30.4, 30.4, 30.4, 29.95, 29.95, 29.5, 29.5, 29.06, 29.06, 28.61, 28.61, 28.16, 28.16, 28.16, 28.16, 28.16, 28.16, 28.16, 27.72, 27.72, 27.72, 27.72, 27.27, 27.27, 27.27, 27.27, 27.27, 26.82, 26.82, 26.82, 26.37, 26.37, 26.37, 26.37, 26.37, 26.37, 25.93, 25.93, 25.93, 25.93, 25.93, 25.48, 25.48, 25.48, 25.48, 25.48, 25.03, 25.03, 25.03, 25.03, 24.59, 24.59, 24.59, 24.14, 24.14, 24.14, 24.14, 23.69, 23.69, 23.69, 23.25, 23.25, 22.8, 21.9, 20.56, 18.78, 16.99, 17.43, 19.22, 20.56, 20.56, 20.56, 20.56, 20.56, 20.56, 20.12, 19.67, 19.67, 19.67, 19.67, 19.67, 19.67, 19.67, 19.67, 32.19, 32.19, 32.19, 32.19, 31.74, 31.74, 31.29, 31.29, 31.29, 31.29, 30.84, 30.84, 30.84, 30.84, 30.4, 30.4, 30.4, 29.95, 29.95, 29.95, 29.5, 29.06, 29.06, 28.61, 28.61, 28.16, 28.16, 28.16, 28.16, 28.16, 28.16, 27.72, 27.72, 27.72, 27.72, 27.72, 27.27, 27.27, 27.27, 27.27, 27.27, 26.82, 26.82, 26.82, 26.37, 26.37, 26.37, 26.37, 26.37, 26.37, 25.93, 25.93, 25.93, 25.93, 25.93, 25.48, 25.48, 25.48, 25.48, 25.03, 25.03, 25.03, 25.03, 24.59, 24.59, 24.59, 24.59, 24.14, 24.14, 24.14, 24.14, 23.69, 23.69, 23.69, 23.25, 23.25, 22.8, 22.35, 21.46, 20.12, 18.33, 16.99, 18.33, 19.67, 20.12, 20.12, 20.12, 20.12, 20.12, 19.67, 19.22, 19.22, 19.67, 19.67, 19.67, 19.67, 19.67, 19.67, 32.19, 32.19, 32.19, 31.74, 31.74, 31.74, 31.29, 31.29, 31.29, 31.29, 30.84, 30.84, 30.84, 30.4, 30.4, 30.4, 30.4, 29.95, 29.95, 29.95, 29.5, 29.06, 28.61, 28.61, 28.61, 28.16, 28.16, 28.16, 28.16, 28.16, 28.16, 27.72, 27.72, 27.72, 27.72, 27.72, 27.72, 27.27, 27.27, 27.27, 27.27, 26.82, 26.82, 26.82, 26.37, 26.37, 26.37, 26.37, 26.37, 26.37, 25.93, 25.93, 25.93, 25.93, 25.48, 25.48, 25.48, 25.48, 25.03, 25.03, 25.03, 25.03, 24.59, 24.59, 24.59, 24.59, 24.14, 24.14, 24.14, 23.69, 23.69, 23.69, 23.69, 23.25, 23.25, 23.25, 22.8, 22.35, 21.9, 21.46, 19.67, 17.88, 17.88, 19.22, 19.67, 19.67, 20.12, 20.12, 19.67, 18.78, 18.78, 19.22, 19.22, 19.67, 19.67, 20.12, 20.12, 20.12, 32.19, 32.19, 32.19, 31.74, 31.74, 31.29, 31.29, 31.29, 31.29, 30.84, 30.84, 30.84, 30.84, 30.4, 30.4, 30.4, 29.95, 29.95, 29.95, 29.5, 29.5, 29.06, 28.61, 28.61, 28.16, 28.16, 28.16, 28.16, 28.16, 27.72, 27.72, 27.72, 27.72, 27.72, 27.72, 27.72, 27.72, 27.27, 27.27, 27.27, 27.27, 26.82, 26.82, 26.82, 26.37, 26.37, 26.37, 26.37, 26.37, 26.37, 25.93, 25.93, 25.93, 25.48, 25.48, 25.48, 25.48, 25.03, 25.03, 25.03, 25.03, 24.59, 24.59, 24.59, 24.59, 24.14, 24.14, 24.14, 24.14, 23.69, 23.69, 23.69, 23.25, 23.25, 23.25, 22.8, 22.8, 22.35, 21.9, 21.46, 20.56, 19.22, 18.33, 18.33, 19.22, 19.67, 19.67, 19.22, 18.33, 18.78, 18.78, 19.22, 19.22, 19.67, 19.67, 20.12, 20.12, 20.12, 32.19, 32.19, 31.74, 31.74, 31.74, 31.29, 31.29, 31.29, 30.84, 30.84, 30.84, 30.84, 30.4, 30.4, 30.4, 29.95, 29.95, 29.95, 29.95, 29.5, 29.5, 29.06, 28.61, 28.61, 28.16, 28.16, 28.16, 28.16, 28.16, 27.72, 27.72, 27.72, 27.72, 27.72, 27.72, 27.72, 27.72, 27.72, 27.27, 27.27, 27.27, 26.82, 26.82, 26.82, 26.37, 26.37, 26.37, 26.37, 26.37, 25.93, 25.93, 25.93, 25.93, 25.48, 25.48, 25.48, 25.03, 25.03, 25.03, 25.03, 24.59, 24.59, 24.59, 24.59, 24.14, 24.14, 24.14, 23.69, 23.69, 23.69, 23.69, 23.69, 23.25, 23.25, 23.25, 22.8, 22.8, 22.8, 22.35, 21.9, 21.01, 20.12, 18.78, 17.88, 19.22, 20.12, 18.78, 18.33, 17.88, 18.33, 18.78, 19.22, 19.22, 19.67, 20.12, 20.12, 20.12, 20.12, 32.19, 31.74, 31.74, 31.74, 31.29, 31.29, 31.29, 31.29, 30.84, 30.84, 30.84, 30.84, 30.4, 30.4, 30.4, 29.95, 29.95, 29.95, 29.95, 29.5, 29.5, 28.61, 28.61, 28.61, 28.16, 28.16, 28.16, 28.16, 28.16, 27.72, 27.72, 27.72, 27.72, 27.72, 27.72, 27.72, 27.72, 27.72, 27.27, 27.27, 27.27, 26.82, 26.82, 26.82, 26.37, 26.37, 26.37, 26.37, 26.37, 25.93, 25.93, 25.93, 25.48, 25.48, 25.48, 25.03, 25.03, 25.03, 25.03, 24.59, 24.59, 24.59, 24.59, 24.14, 24.14, 24.14, 23.69, 23.69, 23.69, 23.69, 23.69, 23.25, 23.25, 23.25, 23.25, 22.8, 22.8, 22.8, 22.8, 22.35, 21.46, 21.01, 19.67, 17.88, 18.78, 19.67, 18.33, 17.88, 17.88, 17.88, 18.78, 19.22, 19.67, 19.67, 20.12, 20.56, 20.56, 20.56, 31.74, 31.74, 31.74, 31.74, 31.29, 31.29, 31.29, 30.84, 30.84, 30.84, 30.84, 30.4, 30.4, 30.4, 29.95, 29.95, 29.95, 29.95, 29.5, 29.5, 29.06, 29.06, 28.61, 28.61, 28.16, 28.16, 28.16, 28.16, 28.16, 27.72, 27.72, 27.72, 27.72, 27.27, 27.27, 27.72, 27.72, 27.72, 27.72, 27.27, 27.27, 27.27, 26.82, 26.82, 26.37, 26.37, 26.37, 26.37, 25.93, 25.93, 25.93, 25.48, 25.48, 25.48, 25.03, 25.03, 25.03, 25.03, 24.59, 24.59, 24.59, 24.14, 24.14, 24.14, 24.14, 24.14, 23.69, 23.69, 23.69, 23.69, 23.69, 23.69, 23.25, 23.25, 23.25, 23.25, 22.8, 22.8, 22.8, 22.35, 21.9, 21.46, 20.12, 17.88, 20.12, 19.67, 18.33, 18.33, 18.33, 17.88, 18.33, 19.22, 19.67, 19.67, 20.12, 20.56, 20.56, 20.56, 31.74, 31.74, 31.74, 31.29, 31.29, 31.29, 30.84, 30.84, 30.84, 30.84, 30.4, 30.4, 30.4, 30.4, 29.95, 29.95, 29.95, 29.5, 29.5, 29.5, 29.06, 29.06, 28.61, 28.61, 28.16, 28.16, 28.16, 28.16, 28.16, 27.72, 27.72, 27.72, 27.72, 27.27, 27.27, 27.27, 27.27, 27.27, 27.27, 27.27, 27.27, 27.27, 26.82, 26.82, 26.37, 26.37, 26.37, 25.93, 25.93, 25.93, 25.48, 25.48, 25.48, 25.03, 25.03, 25.03, 24.59, 24.59, 24.59, 24.59, 24.14, 24.14, 24.14, 24.14, 24.14, 23.69, 23.69, 23.69, 23.69, 23.69, 23.69, 23.69, 23.25, 23.25, 23.25, 23.25, 23.25, 23.25, 22.8, 22.8, 22.35, 21.9, 20.56, 17.88, 19.67, 19.67, 18.78, 18.33, 18.33, 18.33, 18.33, 18.78, 19.67, 20.12, 20.12, 20.56, 20.56, 20.56, 31.74, 31.74, 31.29, 31.29, 31.29, 30.84, 30.84, 30.84, 30.84, 30.4, 30.4, 30.4, 30.4, 29.95, 29.95, 29.95, 29.5, 29.5, 29.5, 29.5, 29.06, 29.06, 28.61, 28.61, 28.16, 28.16, 28.16, 28.16, 28.16, 27.72, 27.72, 27.72, 27.72, 27.27, 27.27, 27.27, 27.27, 27.27, 27.27, 27.27, 27.27, 27.27, 26.82, 26.82, 26.37, 26.37, 25.93, 25.93, 25.93, 25.93, 25.48, 25.48, 25.03, 25.03, 25.03, 24.59, 24.59, 24.59, 24.59, 24.14, 24.14, 24.14, 24.14, 24.14, 24.14, 23.69, 23.69, 23.69, 23.69, 23.69, 23.69, 23.69, 23.69, 23.25, 23.25, 23.25, 23.25, 23.25, 22.8, 22.8, 22.8, 21.9, 19.22, 18.33, 19.22, 19.22, 18.78, 18.78, 18.78, 18.78, 18.78, 19.22, 19.67, 20.12, 20.56, 21.01, 21.01, 21.01, 31.29, 31.29, 31.29, 31.29, 30.84, 30.84, 30.84, 30.84, 30.4, 30.4, 30.4, 30.4, 29.95, 29.95, 29.95, 29.95, 29.5, 29.5, 29.5, 29.5, 29.06, 29.06, 28.61, 28.61, 28.16, 28.16, 28.16, 28.16, 28.16, 27.72, 27.72, 27.72, 27.72, 27.27, 27.27, 27.27, 27.27, 27.27, 27.27, 27.27, 27.27, 26.82, 26.82, 26.82, 26.37, 26.37, 25.93, 25.93, 25.93, 25.48, 25.48, 25.48, 25.03, 25.03, 25.03, 24.59, 24.59, 24.59, 24.14, 24.14, 24.14, 24.14, 24.14, 24.14, 24.14, 24.14, 24.14, 24.14, 24.14, 24.14, 23.69, 23.69, 23.69, 23.69, 23.25, 23.25, 23.25, 23.25, 22.8, 22.8, 22.8, 22.35, 20.12, 18.33, 18.78, 19.22, 18.78, 18.78, 18.78, 18.78, 18.78, 19.22, 19.67, 20.12, 21.01, 21.01, 21.01, 21.01, 31.29, 31.29, 31.29, 30.84, 30.84, 30.84, 30.84, 30.4, 30.4, 30.4, 30.4, 30.4, 29.95, 29.95, 29.95, 29.5, 29.5, 29.5, 29.5, 29.06, 29.06, 29.06, 28.61, 28.16, 28.16, 28.16, 28.16, 28.16, 28.16, 27.72, 27.72, 27.72, 27.27, 27.27, 27.27, 27.27, 27.27, 26.82, 26.82, 26.82, 26.82, 26.82, 26.82, 26.37, 26.37, 26.37, 25.93, 25.93, 25.48, 25.48, 25.48, 25.48, 25.03, 25.03, 24.59, 24.59, 24.59, 24.59, 24.14, 24.14, 24.14, 24.14, 24.14, 24.14, 24.14, 24.14, 24.14, 24.14, 24.14, 24.14, 24.14, 23.69, 23.69, 23.69, 23.25, 23.25, 23.25, 23.25, 23.25, 22.8, 22.8, 21.9, 20.56, 18.78, 17.88, 19.22, 19.22, 18.78, 18.78, 18.78, 18.78, 19.67, 20.12, 20.56, 21.01, 21.46, 21.46, 21.46, 31.29, 31.29, 30.84, 30.84, 30.84, 30.84, 30.84, 30.4, 30.4, 30.4, 30.4, 29.95, 29.95, 29.95, 29.95, 29.5, 29.5, 29.5, 29.5, 29.06, 29.06, 29.06, 28.61, 28.16, 28.16, 28.16, 28.16, 28.16, 28.16, 27.72, 27.72, 27.72, 27.27, 27.27, 27.27, 27.27, 26.82, 26.82, 26.82, 26.82, 26.82, 26.82, 26.37, 26.37, 26.37, 25.93, 25.93, 25.93, 25.48, 25.48, 25.48, 25.03, 25.03, 24.59, 24.59, 24.59, 24.59, 24.59, 24.59, 24.14, 24.14, 24.14, 24.14, 24.14, 24.14, 24.14, 24.14, 24.14, 24.14, 24.14, 24.14, 23.69, 23.69, 23.69, 23.25, 23.25, 23.25, 23.25, 23.25, 22.8, 22.8, 22.35, 21.46, 19.22, 17.43, 18.33, 19.22, 19.22, 18.78, 19.22, 19.22, 19.67, 20.12, 21.01, 21.46, 21.46, 21.46, 21.46, 30.84, 30.84, 30.84, 30.84, 30.84, 30.84, 30.4, 30.4, 30.4, 30.4, 29.95, 29.95, 29.95, 29.95, 29.5, 29.5, 29.5, 29.5, 29.5, 29.06, 29.06, 28.61, 28.61, 28.16, 28.16, 28.16, 28.16, 28.16, 28.16, 27.72, 27.72, 27.72, 27.27, 27.27, 27.27, 27.27, 26.82, 26.82, 26.82, 26.82, 26.82, 26.37, 26.37, 26.37, 26.37, 25.93, 25.93, 25.93, 25.48, 25.48, 25.48, 25.03, 25.03, 24.59, 24.59, 24.59, 24.59, 24.59, 24.59, 24.59, 24.59, 24.14, 24.14, 24.14, 24.14, 24.14, 24.14, 24.14, 24.14, 24.14, 24.14, 23.69, 23.69, 23.69, 23.25, 23.25, 23.25, 23.25, 23.25, 22.8, 22.8, 22.35, 21.46, 20.12, 17.43, 17.43, 18.78, 19.22, 19.67, 19.67, 20.12, 20.56, 21.01, 21.46, 21.46, 21.46, 21.46, 21.46, 30.84, 30.84, 30.84, 30.84, 30.84, 30.4, 30.4, 30.4, 30.4, 30.4, 29.95, 29.95, 29.95, 29.95, 29.5, 29.5, 29.5, 29.5, 29.06, 29.06, 29.06, 28.61, 28.61, 28.61, 28.16, 28.16, 28.16, 28.16, 27.72, 27.72, 27.72, 27.72, 27.27, 27.27, 27.27, 27.27, 26.82, 26.82, 26.82, 26.82, 26.37, 26.37, 26.37, 26.37, 26.37, 25.93, 25.93, 25.93, 25.48, 25.48, 25.48, 25.03, 25.03, 25.03, 24.59, 24.59, 24.59, 24.59, 24.59, 24.59, 24.59, 24.59, 24.59, 24.14, 24.14, 24.14, 24.14, 24.14, 24.14, 24.14, 24.14, 23.69, 23.69, 23.25, 23.25, 23.25, 23.25, 23.25, 23.25, 22.8, 22.8, 22.35, 21.9, 20.56, 18.33, 16.54, 17.43, 18.78, 19.67, 20.56, 21.01, 21.46, 21.46, 21.9, 21.9, 21.9, 21.9, 21.9, 30.84, 30.84, 30.84, 30.84, 30.4, 30.4, 30.4, 30.4, 30.4, 29.95, 29.95, 29.95, 29.95, 29.5, 29.5, 29.5, 29.5, 29.5, 29.06, 29.06, 29.06, 28.61, 28.61, 28.61, 28.16, 28.16, 28.16, 27.72, 27.72, 27.72, 27.72, 27.72, 27.27, 27.27, 27.27, 27.27, 26.82, 26.82, 26.82, 26.37, 26.37, 26.37, 26.37, 26.37, 25.93, 25.93, 25.93, 25.93, 25.48, 25.48, 25.48, 25.03, 25.03, 25.03, 24.59, 24.59, 24.59, 24.59, 24.59, 24.59, 24.59, 24.59, 24.59, 24.59, 24.14, 24.14, 24.14, 24.14, 24.14, 24.14, 23.69, 23.69, 23.69, 23.69, 23.25, 23.25, 23.25, 23.25, 23.25, 23.25, 22.8, 22.35, 21.9, 21.01, 19.22, 17.43, 16.54, 17.88, 19.22, 20.56, 21.46, 21.9, 22.35, 22.35, 22.35, 21.9, 21.9, 21.9, 30.84, 30.84, 30.84, 30.4, 30.4, 30.4, 30.4, 30.4, 30.4, 29.95, 29.95, 29.95, 29.95, 29.5, 29.5, 29.5, 29.5, 29.5, 29.06, 29.06, 29.06, 28.61, 28.61, 28.61, 28.16, 28.16, 28.16, 27.72, 27.72, 27.72, 27.72, 27.27, 27.27, 27.27, 27.27, 26.82, 26.82, 26.82, 26.82, 26.37, 26.37, 26.37, 26.37, 26.37, 25.93, 25.93, 25.93, 25.93, 25.93, 25.48, 25.48, 25.03, 25.03, 25.03, 25.03, 24.59, 24.59, 24.59, 24.59, 24.59, 24.59, 24.59, 24.59, 24.59, 24.14, 24.14, 24.14, 24.14, 24.14, 23.69, 23.69, 23.69, 23.69, 23.69, 23.25, 23.25, 23.25, 23.25, 23.25, 23.25, 22.8, 22.8, 22.35, 21.46, 20.12, 18.33, 16.99, 16.54, 17.88, 20.12, 21.46, 22.35, 22.8, 22.8, 22.8, 22.8, 22.8, 22.8, 30.84, 30.84, 30.84, 30.4, 30.4, 30.4, 30.4, 30.4, 30.4, 29.95, 29.95, 29.95, 29.95, 29.5, 29.5, 29.5, 29.5, 29.5, 29.06, 29.06, 29.06, 28.61, 28.61, 28.61, 28.16, 28.16, 28.16, 27.72, 27.72, 27.72, 27.72, 27.27, 27.27, 27.27, 27.27, 26.82, 26.82, 26.82, 26.82, 26.37, 26.37, 26.37, 26.37, 26.37, 25.93, 25.93, 25.93, 25.93, 25.93, 25.48, 25.48, 25.03, 25.03, 25.03, 25.03, 24.59, 24.59, 24.59, 24.59, 24.59, 24.59, 24.59, 24.59, 24.59, 24.14, 24.14, 24.14, 24.14, 24.14, 23.69, 23.69, 23.69, 23.69, 23.69, 23.25, 23.25, 23.25, 23.25, 23.25, 23.25, 22.8, 22.8, 22.35, 21.9, 21.01, 19.67, 17.88, 16.54, 16.99, 18.78, 20.56, 21.9, 22.8, 23.25, 23.25, 23.25, 23.25, 23.25]}, {"header": {"parameterCategory": 1, "parameterNumber": 3, "dx": 0.06612293990616946, "dy": 0.0552356325346848, "nx": 98, "ny": 59, "la1": 35.046912555036876, "la2": 31.78801023549047, "lo1": -121.43107172385933, "lo2": -114.95102361305473, "refTime": "2026041212"}, "data": [9.39, 9.39, 9.39, 9.83, 9.83, 10.28, 10.28, 10.73, 11.18, 11.62, 12.07, 12.96, 13.41, 13.86, 13.86, 14.3, 15.2, 15.65, 15.65, 16.09, 16.09, 16.09, 16.54, 16.54, 16.54, 16.54, 16.54, 16.54, 16.54, 16.99, 16.99, 16.99, 17.43, 17.43, 17.43, 17.88, 17.88, 17.88, 17.43, 17.88, 17.88, 17.88, 17.88, 17.88, 17.88, 17.88, 17.43, 17.43, 17.43, 17.43, 17.43, 16.99, 16.99, 16.99, 16.99, 16.54, 16.54, 16.54, 16.54, 16.09, 16.09, 16.09, 16.09, 16.09, 16.09, 16.09, 16.09, 16.09, 16.09, 15.65, 15.2, 14.75, 14.75, 14.3, 13.86, 13.86, 13.86, 13.41, 13.41, 12.96, 12.96, 12.96, 12.96, 12.96, 12.96, 12.96, 13.41, 13.41, 13.41, 13.41, 13.41, 13.41, 13.41, 12.96, 12.96, 12.96, 12.96, 12.96, 8.94, 8.94, 9.39, 9.83, 9.83, 10.28, 10.73, 11.18, 11.62, 12.07, 12.52, 12.96, 13.41, 13.86, 14.3, 14.75, 15.2, 15.65, 15.65, 16.09, 16.09, 16.09, 16.09, 16.09, 16.09, 16.54, 16.54, 16.54, 16.54, 16.54, 16.54, 16.54, 16.54, 16.99, 16.99, 17.43, 17.43, 17.43, 17.43, 17.43, 17.88, 17.88, 17.88, 17.43, 17.43, 17.43, 16.99, 16.99, 16.99, 16.99, 16.54, 16.54, 16.54, 16.54, 16.09, 16.09, 16.09, 16.09, 16.09, 16.09, 16.09, 16.09, 16.09, 16.09, 16.09, 16.09, 16.09, 16.09, 15.65, 15.2, 14.75, 14.3, 14.3, 13.86, 13.86, 13.41, 13.41, 13.41, 13.41, 12.96, 12.96, 12.96, 12.96, 12.96, 12.96, 12.96, 13.41, 13.41, 13.41, 13.41, 13.41, 13.41, 13.41, 12.96, 12.96, 12.96, 12.96, 12.96, 8.94, 8.94, 9.39, 9.83, 10.28, 10.28, 10.73, 11.18, 11.62, 12.07, 12.52, 12.96, 13.41, 13.86, 14.3, 14.75, 15.2, 15.65, 15.65, 16.09, 16.09, 16.54, 16.54, 16.09, 16.09, 16.09, 16.09, 16.54, 16.99, 16.99, 16.54, 16.09, 16.09, 15.65, 15.65, 16.09, 16.09, 16.54, 16.54, 16.54, 16.99, 16.99, 16.54, 16.54, 16.54, 16.54, 16.54, 16.09, 16.09, 16.09, 16.09, 16.09, 15.65, 15.65, 15.65, 15.65, 15.65, 15.65, 15.65, 15.65, 15.65, 15.65, 15.65, 15.65, 15.65, 15.65, 15.65, 15.65, 15.2, 15.2, 14.75, 14.3, 13.86, 13.86, 13.41, 13.41, 13.41, 13.41, 13.41, 12.96, 12.96, 12.96, 13.41, 13.41, 13.41, 13.41, 13.86, 13.86, 13.86, 13.86, 13.86, 13.41, 13.41, 13.41, 12.96, 12.96, 12.96, 12.96, 8.49, 8.94, 9.39, 9.83, 10.28, 10.28, 10.73, 11.18, 11.62, 12.07, 12.52, 12.96, 13.41, 13.86, 14.3, 14.75, 15.2, 15.65, 15.65, 16.09, 16.09, 16.54, 16.54, 16.54, 16.54, 16.09, 16.09, 16.09, 16.54, 16.54, 16.54, 16.54, 16.09, 15.65, 15.2, 14.75, 14.75, 14.75, 15.2, 15.65, 15.65, 15.65, 15.65, 15.65, 15.65, 15.65, 15.65, 15.65, 15.65, 15.65, 15.65, 15.2, 15.2, 15.2, 15.2, 15.2, 15.2, 15.2, 15.2, 15.2, 15.2, 15.2, 15.2, 15.2, 15.2, 15.2, 15.2, 15.2, 14.75, 14.3, 14.3, 13.86, 13.86, 13.86, 13.86, 13.86, 14.3, 14.3, 13.41, 13.86, 13.86, 13.86, 13.86, 13.86, 13.86, 13.86, 13.86, 13.86, 13.86, 13.86, 13.86, 13.86, 13.41, 13.41, 13.41, 12.96, 12.96, 12.96, 8.49, 8.94, 9.39, 9.83, 10.28, 10.28, 10.73, 11.18, 11.62, 12.07, 12.96, 12.96, 13.41, 13.86, 14.3, 14.3, 14.75, 15.2, 15.65, 16.09, 16.09, 16.09, 16.54, 16.54, 16.54, 16.54, 16.09, 15.65, 15.65, 16.09, 16.09, 16.54, 16.54, 16.09, 15.65, 15.2, 14.75, 14.75, 14.75, 15.2, 15.2, 14.75, 14.75, 14.75, 15.2, 15.2, 15.2, 15.2, 15.2, 15.2, 15.2, 14.75, 14.75, 14.75, 14.75, 14.75, 14.75, 14.75, 14.75, 14.75, 14.75, 14.75, 14.75, 14.75, 14.75, 14.75, 14.75, 14.3, 13.86, 13.86, 13.41, 13.41, 13.41, 13.86, 14.3, 14.3, 14.3, 14.3, 14.3, 14.3, 14.3, 14.3, 13.86, 13.86, 13.86, 13.86, 13.86, 13.86, 14.3, 14.3, 13.86, 13.86, 13.41, 13.41, 13.41, 13.41, 12.96, 12.96, 8.05, 8.94, 9.39, 9.83, 10.28, 10.28, 10.73, 11.18, 11.62, 12.52, 12.52, 12.96, 13.41, 13.86, 14.3, 14.3, 14.75, 15.2, 15.2, 15.65, 16.09, 16.09, 16.54, 16.54, 16.54, 16.54, 16.54, 16.09, 15.65, 15.65, 15.65, 16.09, 16.54, 16.54, 16.54, 16.09, 15.65, 15.2, 15.2, 15.2, 15.2, 14.75, 14.3, 14.3, 14.3, 14.3, 14.75, 14.75, 14.75, 14.75, 14.75, 14.3, 14.3, 14.3, 14.3, 14.3, 14.3, 14.3, 14.3, 14.3, 14.3, 14.3, 14.3, 14.3, 14.3, 14.3, 14.3, 14.3, 13.86, 13.41, 12.96, 12.96, 12.96, 12.96, 13.86, 13.86, 14.3, 13.86, 13.86, 14.3, 14.3, 14.3, 13.86, 13.86, 13.86, 13.86, 13.86, 14.3, 14.3, 14.3, 13.86, 13.86, 13.86, 13.41, 13.41, 13.41, 13.41, 12.96, 8.49, 8.94, 9.39, 9.83, 9.83, 10.28, 10.73, 11.18, 11.62, 12.07, 12.52, 12.96, 13.41, 13.86, 14.3, 14.3, 14.75, 14.75, 15.2, 15.65, 16.09, 16.54, 16.54, 16.54, 16.54, 16.99, 16.99, 16.54, 16.54, 16.09, 16.09, 16.09, 16.09, 16.09, 16.54, 16.09, 16.09, 15.65, 15.2, 15.2, 15.65, 15.2, 14.75, 14.75, 14.3, 14.3, 14.3, 14.3, 14.3, 14.3, 14.3, 14.3, 14.3, 14.3, 14.3, 14.3, 13.86, 13.86, 13.86, 13.86, 13.86, 13.86, 13.86, 13.86, 13.86, 13.86, 13.86, 13.86, 13.86, 13.41, 12.96, 12.96, 12.52, 12.52, 12.52, 12.96, 13.41, 13.41, 12.96, 12.96, 13.86, 13.86, 13.86, 13.86, 13.86, 13.86, 14.3, 14.3, 14.3, 14.3, 14.3, 13.86, 13.86, 13.86, 13.41, 13.41, 13.41, 12.96, 8.49, 8.94, 9.39, 9.83, 9.83, 10.28, 10.73, 11.18, 11.62, 12.07, 12.52, 12.96, 13.41, 13.41, 13.86, 14.3, 14.75, 14.75, 15.2, 15.65, 16.09, 16.54, 16.99, 16.99, 17.43, 17.43, 17.43, 17.43, 16.99, 16.99, 16.54, 16.54, 16.54, 16.54, 16.09, 16.54, 16.54, 16.09, 15.65, 15.65, 15.65, 15.65, 15.65, 15.2, 15.2, 14.75, 14.3, 14.3, 14.3, 14.3, 14.3, 14.3, 14.3, 14.3, 14.3, 14.3, 14.3, 14.3, 14.3, 13.86, 13.86, 13.86, 13.86, 13.86, 13.86, 13.86, 13.86, 13.86, 13.86, 13.86, 13.41, 12.96, 12.52, 12.52, 12.52, 12.52, 12.52, 12.52, 12.52, 12.96, 12.96, 13.41, 13.41, 13.41, 13.41, 13.86, 13.86, 14.3, 14.3, 14.3, 13.86, 13.86, 13.86, 13.86, 13.86, 13.86, 13.41, 13.41, 8.49, 8.94, 9.39, 9.39, 9.83, 10.28, 10.73, 11.18, 11.62, 12.07, 12.52, 12.96, 12.96, 13.41, 13.86, 13.86, 14.3, 14.75, 14.75, 15.2, 15.65, 16.09, 16.54, 16.99, 16.99, 17.43, 17.43, 17.43, 17.43, 16.99, 16.99, 16.99, 16.99, 16.54, 16.54, 16.54, 16.54, 16.54, 16.09, 15.65, 15.65, 15.65, 15.65, 15.65, 15.65, 15.2, 15.2, 14.75, 14.3, 14.3, 14.3, 14.75, 14.75, 14.75, 14.75, 14.75, 14.75, 14.75, 14.3, 14.3, 14.3, 14.3, 14.3, 14.3, 14.3, 14.3, 13.86, 13.86, 13.86, 13.86, 13.41, 13.41, 12.96, 12.52, 12.52, 12.52, 12.52, 12.52, 12.52, 12.96, 12.96, 13.41, 13.41, 13.41, 13.41, 13.86, 13.86, 14.3, 14.3, 13.86, 13.86, 13.86, 13.86, 13.86, 13.41, 13.41, 13.41, 13.41, 8.49, 8.94, 9.39, 9.39, 9.83, 10.28, 10.73, 11.18, 11.62, 12.07, 12.52, 12.96, 12.96, 13.41, 13.41, 13.86, 14.3, 14.3, 14.75, 15.2, 15.2, 15.65, 16.09, 16.54, 16.99, 16.99, 16.99, 16.99, 17.43, 16.99, 16.99, 16.99, 16.99, 16.99, 16.99, 16.54, 16.09, 16.54, 16.54, 16.09, 16.09, 16.09, 16.09, 16.09, 15.65, 15.65, 15.65, 15.2, 15.2, 14.75, 14.3, 14.3, 14.3, 14.75, 14.75, 14.75, 14.75, 14.75, 14.75, 14.3, 14.3, 14.3, 14.3, 14.3, 13.86, 13.86, 13.86, 13.86, 13.86, 13.86, 13.41, 13.41, 12.96, 12.96, 12.52, 12.52, 12.52, 12.52, 12.96, 13.41, 13.41, 13.41, 13.41, 13.41, 13.86, 13.86, 13.86, 13.86, 13.86, 13.86, 13.86, 13.41, 13.41, 13.41, 13.41, 13.41, 13.41, 12.96, 8.49, 8.94, 8.94, 9.39, 9.83, 10.28, 10.73, 11.18, 11.62, 12.07, 12.07, 12.52, 12.96, 13.41, 13.41, 13.86, 13.86, 14.3, 14.75, 14.75, 15.2, 15.65, 16.09, 16.09, 16.54, 16.54, 16.54, 16.99, 16.99, 16.99, 16.99, 16.99, 17.43, 17.43, 16.99, 16.99, 16.54, 16.54, 16.54, 16.09, 16.09, 16.09, 16.09, 16.09, 16.09, 15.65, 15.65, 15.2, 15.2, 14.75, 14.3, 13.86, 13.41, 13.41, 13.41, 13.41, 13.41, 13.41, 13.41, 13.41, 12.96, 12.96, 12.96, 12.96, 12.96, 12.96, 13.41, 13.41, 13.41, 13.41, 13.41, 13.41, 12.96, 12.96, 12.96, 12.52, 12.96, 12.96, 13.41, 13.41, 13.41, 13.41, 13.86, 13.86, 14.3, 14.3, 13.86, 13.86, 13.41, 13.41, 13.41, 13.41, 13.41, 13.41, 13.41, 13.41, 12.96, 12.96, 8.49, 8.49, 8.94, 9.39, 9.83, 10.28, 10.73, 11.18, 11.18, 11.62, 12.07, 12.52, 12.52, 12.96, 13.41, 13.41, 13.86, 13.86, 14.3, 14.75, 14.75, 15.2, 15.65, 15.65, 16.09, 16.09, 16.54, 16.54, 16.99, 16.99, 16.99, 16.99, 16.99, 16.99, 16.99, 16.99, 16.99, 16.54, 16.54, 16.54, 16.09, 16.09, 16.09, 16.09, 16.09, 15.65, 15.65, 15.2, 15.2, 14.75, 14.3, 13.86, 13.41, 12.52, 12.07, 11.62, 11.18, 10.73, 11.18, 11.18, 11.18, 11.18, 10.73, 10.73, 10.73, 10.73, 10.73, 11.18, 11.18, 12.07, 12.52, 12.52, 12.52, 12.52, 12.52, 12.52, 12.52, 12.96, 12.96, 13.41, 12.96, 12.96, 13.41, 13.86, 13.86, 13.86, 13.86, 13.41, 13.41, 13.41, 13.41, 13.41, 13.41, 12.96, 12.96, 12.96, 12.96, 12.52, 8.05, 8.49, 8.94, 9.39, 9.83, 10.28, 10.28, 10.73, 11.18, 11.62, 12.07, 12.07, 12.52, 12.96, 12.96, 13.41, 13.41, 13.86, 13.86, 14.3, 14.3, 14.75, 15.2, 15.2, 15.65, 15.65, 16.09, 16.09, 16.54, 16.54, 16.54, 16.54, 16.54, 16.54, 16.99, 16.99, 16.99, 16.54, 16.54, 16.54, 16.09, 16.09, 15.65, 15.65, 15.65, 15.65, 15.65, 15.2, 15.2, 14.75, 14.75, 14.3, 13.86, 13.86, 12.96, 12.52, 11.62, 10.73, 10.28, 10.73, 10.73, 10.28, 9.83, 9.39, 9.39, 9.39, 8.94, 8.49, 8.05, 8.05, 8.49, 9.39, 10.28, 11.18, 11.18, 11.62, 11.62, 12.07, 12.07, 12.07, 12.07, 12.07, 12.52, 12.52, 13.41, 13.41, 13.41, 13.41, 12.96, 12.96, 12.96, 12.96, 12.96, 12.96, 12.96, 12.96, 12.52, 12.52, 8.05, 8.49, 8.94, 9.39, 9.39, 9.83, 10.28, 10.73, 11.18, 11.18, 11.62, 12.07, 12.07, 12.52, 12.96, 13.41, 13.41, 13.86, 13.86, 13.86, 14.3, 14.3, 14.75, 14.75, 15.2, 15.2, 15.65, 16.09, 16.09, 16.09, 16.54, 16.54, 16.54, 16.54, 16.54, 16.54, 16.54, 16.54, 16.09, 16.09, 16.09, 15.65, 15.65, 15.65, 15.65, 15.65, 15.65, 15.2, 15.2, 15.2, 14.75, 14.75, 14.75, 14.75, 14.3, 14.3, 13.41, 12.96, 11.62, 12.07, 12.07, 11.18, 10.28, 9.83, 9.83, 9.39, 8.94, 8.49, 7.15, 6.71, 5.81, 5.81, 7.15, 8.49, 8.94, 9.39, 10.28, 10.73, 10.73, 10.73, 10.73, 11.18, 11.62, 11.62, 12.52, 12.52, 12.52, 12.52, 12.96, 12.96, 12.96, 12.96, 12.96, 12.96, 12.96, 12.96, 12.52, 12.52, 7.6, 8.05, 8.49, 8.94, 9.39, 9.83, 10.28, 10.73, 10.73, 11.18, 11.62, 11.62, 12.07, 12.52, 12.96, 12.96, 13.41, 13.41, 13.86, 13.86, 13.86, 14.3, 14.3, 14.3, 14.75, 15.2, 15.2, 15.65, 15.65, 15.65, 16.09, 16.09, 16.09, 16.09, 16.09, 16.09, 16.09, 16.09, 16.09, 16.09, 15.65, 15.65, 15.65, 15.65, 15.2, 15.2, 15.2, 15.2, 15.2, 15.2, 15.2, 14.75, 14.75, 14.75, 14.75, 14.75, 14.3, 14.3, 13.41, 12.96, 13.41, 12.96, 12.52, 12.07, 11.62, 11.18, 10.73, 9.83, 8.94, 8.05, 7.15, 6.26, 6.26, 6.71, 7.6, 8.49, 9.39, 9.83, 9.83, 9.83, 10.28, 10.28, 10.73, 10.73, 10.73, 11.62, 11.62, 11.62, 12.07, 12.52, 12.52, 12.52, 12.96, 12.52, 12.52, 12.52, 12.52, 12.52, 7.6, 8.05, 8.49, 8.94, 9.39, 9.39, 9.83, 10.28, 10.73, 11.18, 11.18, 11.62, 12.07, 12.07, 12.52, 12.96, 13.41, 13.41, 13.41, 13.86, 13.86, 13.86, 14.3, 14.3, 14.3, 14.75, 14.75, 15.2, 15.2, 15.65, 15.65, 15.65, 15.65, 15.65, 15.65, 15.65, 15.65, 15.65, 15.65, 15.65, 15.2, 15.2, 15.2, 15.2, 15.2, 15.2, 15.2, 15.2, 15.2, 15.2, 15.2, 15.2, 14.75, 14.75, 14.75, 14.75, 14.75, 14.75, 14.3, 13.86, 13.86, 13.86, 13.41, 13.41, 12.96, 12.52, 12.07, 11.18, 10.28, 9.39, 8.49, 8.05, 7.6, 7.15, 7.6, 8.49, 8.94, 9.39, 9.83, 9.83, 9.83, 10.28, 10.28, 10.28, 10.28, 10.73, 11.18, 11.18, 11.62, 12.07, 12.07, 12.07, 12.07, 12.07, 12.07, 12.07, 12.07, 12.07, 7.6, 7.6, 8.05, 8.49, 8.94, 9.39, 9.83, 10.28, 10.73, 10.73, 11.18, 11.18, 11.62, 12.07, 12.52, 12.52, 12.96, 13.41, 13.41, 13.41, 13.86, 13.86, 13.86, 13.86, 14.3, 14.3, 14.75, 14.75, 14.75, 15.2, 15.2, 15.2, 15.2, 15.2, 15.2, 15.2, 15.2, 15.2, 15.2, 15.2, 15.2, 15.2, 14.75, 14.75, 14.75, 14.75, 14.75, 14.75, 14.75, 14.75, 14.75, 14.75, 14.75, 14.3, 14.3, 14.3, 14.3, 14.3, 14.3, 14.3, 13.86, 13.86, 13.86, 13.41, 13.41, 12.96, 12.96, 12.52, 11.62, 10.73, 9.83, 9.83, 9.39, 8.94, 8.49, 8.94, 8.94, 9.39, 9.39, 9.39, 9.83, 9.83, 10.28, 10.28, 10.28, 10.73, 10.73, 11.18, 11.62, 11.62, 11.62, 11.62, 11.62, 11.62, 11.62, 11.62, 12.07, 12.07, 7.15, 7.6, 8.05, 8.49, 8.94, 9.39, 9.83, 10.28, 10.28, 10.73, 11.18, 11.18, 11.62, 11.62, 12.07, 12.52, 12.52, 12.96, 12.96, 13.41, 13.41, 13.41, 13.86, 13.86, 13.86, 13.86, 14.3, 14.3, 14.75, 14.75, 14.75, 14.75, 14.75, 15.2, 15.2, 15.2, 15.2, 15.2, 14.75, 14.75, 14.75, 14.75, 14.75, 14.75, 14.75, 14.75, 14.75, 14.75, 14.75, 14.75, 14.75, 14.3, 14.3, 14.3, 14.3, 14.3, 13.86, 13.86, 13.86, 13.86, 13.86, 13.41, 13.41, 13.41, 13.41, 12.96, 12.96, 12.52, 12.96, 12.52, 11.62, 10.73, 10.28, 10.28, 10.28, 9.83, 9.39, 8.94, 8.94, 8.94, 8.94, 9.39, 9.83, 10.28, 10.28, 10.28, 10.73, 11.18, 11.18, 11.18, 11.18, 11.18, 11.18, 11.18, 11.18, 11.62, 11.62, 11.62, 7.15, 7.6, 8.05, 8.49, 8.49, 8.94, 9.39, 9.83, 10.28, 10.73, 10.73, 11.18, 11.18, 11.62, 12.07, 12.07, 12.52, 12.52, 12.96, 12.96, 12.96, 13.41, 13.41, 13.41, 13.86, 13.86, 13.86, 14.3, 14.3, 14.3, 14.75, 14.75, 14.75, 14.75, 14.75, 14.75, 14.75, 14.75, 14.75, 14.75, 14.75, 14.75, 14.75, 14.75, 14.75, 14.75, 14.3, 14.3, 14.3, 14.3, 14.3, 14.3, 13.86, 13.86, 13.86, 13.86, 13.86, 13.86, 13.41, 13.41, 13.41, 13.41, 13.41, 12.96, 12.96, 12.96, 12.96, 12.52, 12.52, 12.52, 12.52, 11.62, 11.18, 11.62, 11.18, 10.73, 10.28, 9.39, 8.49, 8.05, 8.94, 9.39, 9.83, 10.28, 10.28, 10.28, 10.28, 10.28, 10.73, 10.73, 10.73, 10.28, 10.73, 10.73, 10.73, 10.73, 10.73, 10.73, 7.15, 7.6, 7.6, 8.05, 8.49, 8.94, 9.39, 9.83, 10.28, 10.28, 10.73, 10.73, 11.18, 11.62, 11.62, 12.07, 12.07, 12.52, 12.52, 12.96, 12.96, 12.96, 13.41, 13.41, 13.41, 13.86, 13.86, 13.86, 14.3, 14.3, 14.3, 14.75, 14.75, 14.75, 14.75, 14.75, 14.75, 14.75, 14.75, 14.75, 14.75, 14.75, 14.75, 14.75, 14.3, 14.3, 14.3, 14.3, 14.3, 13.86, 13.86, 13.86, 13.86, 13.86, 13.41, 13.41, 13.41, 13.41, 13.41, 13.41, 13.41, 12.96, 12.96, 12.96, 12.96, 12.52, 12.52, 12.52, 12.52, 12.52, 12.52, 12.07, 12.07, 12.07, 11.62, 11.18, 10.73, 9.83, 8.49, 8.49, 8.49, 9.39, 9.83, 10.28, 10.28, 10.28, 10.28, 10.28, 10.28, 10.28, 10.28, 10.28, 10.28, 10.28, 10.28, 10.28, 10.28, 10.28, 7.15, 7.15, 7.6, 8.05, 8.49, 8.94, 9.39, 9.39, 9.83, 10.28, 10.28, 10.73, 11.18, 11.18, 11.62, 11.62, 12.07, 12.07, 12.52, 12.52, 12.96, 12.96, 12.96, 13.41, 13.41, 13.41, 13.86, 13.86, 13.86, 13.86, 14.3, 14.3, 14.3, 14.3, 14.3, 14.3, 14.75, 14.75, 14.75, 14.75, 14.75, 14.3, 14.3, 14.3, 14.3, 14.3, 13.86, 13.86, 13.86, 13.86, 13.86, 13.41, 13.41, 13.41, 13.41, 13.41, 12.96, 12.96, 12.96, 12.96, 12.96, 12.96, 12.96, 12.96, 12.52, 12.52, 12.52, 12.52, 12.07, 12.07, 12.07, 12.07, 12.52, 12.52, 11.62, 10.73, 10.73, 9.83, 9.39, 8.94, 8.94, 8.94, 9.39, 9.83, 10.28, 10.28, 10.28, 10.28, 10.28, 10.28, 10.28, 10.28, 9.83, 9.83, 9.83, 9.83, 9.83, 9.83, 6.71, 7.15, 7.6, 8.05, 8.49, 8.49, 8.94, 9.39, 9.83, 10.28, 10.28, 10.73, 10.73, 11.18, 11.18, 11.62, 11.62, 12.07, 12.07, 12.52, 12.52, 12.52, 12.96, 12.96, 12.96, 13.41, 13.41, 13.41, 13.41, 13.86, 13.86, 13.86, 14.3, 14.3, 14.3, 14.3, 14.3, 14.3, 14.3, 14.3, 14.3, 14.3, 14.3, 14.3, 14.3, 13.86, 13.86, 13.86, 13.86, 13.41, 13.41, 13.41, 13.41, 13.41, 12.96, 12.96, 12.96, 12.52, 12.96, 12.96, 12.96, 12.52, 12.52, 12.52, 12.52, 12.52, 12.52, 12.07, 12.07, 11.62, 11.62, 11.18, 11.18, 11.18, 10.73, 10.73, 10.73, 10.73, 10.28, 9.83, 9.83, 9.39, 9.39, 9.39, 9.83, 10.28, 10.28, 10.28, 10.28, 10.28, 10.28, 10.28, 9.83, 9.83, 9.83, 9.83, 9.83, 9.83, 6.71, 6.71, 7.15, 8.05, 8.05, 8.49, 8.94, 9.39, 9.39, 9.83, 10.28, 10.28, 10.73, 10.73, 11.18, 11.18, 11.62, 11.62, 12.07, 12.07, 12.52, 12.52, 12.52, 12.52, 12.96, 12.96, 12.96, 12.96, 13.41, 13.41, 13.41, 13.86, 13.86, 13.86, 13.86, 13.86, 13.86, 13.86, 14.3, 14.3, 14.3, 14.3, 13.86, 13.86, 13.86, 13.86, 13.86, 13.86, 13.41, 13.41, 13.41, 13.41, 12.96, 12.96, 12.96, 12.52, 12.52, 12.52, 12.52, 12.52, 12.52, 12.52, 12.52, 12.07, 12.07, 12.07, 12.07, 12.07, 12.07, 11.62, 11.62, 11.62, 8.94, 9.39, 10.28, 10.28, 10.28, 10.73, 10.73, 10.73, 10.28, 9.83, 9.83, 9.83, 9.83, 9.83, 9.83, 9.83, 10.28, 10.73, 10.73, 10.73, 10.28, 9.83, 9.83, 9.83, 9.83, 9.83, 6.71, 6.71, 7.15, 7.6, 8.05, 8.49, 8.94, 9.39, 9.39, 9.83, 10.28, 10.28, 10.73, 10.73, 11.18, 11.18, 11.18, 11.62, 11.62, 12.07, 12.07, 12.07, 12.52, 12.52, 12.52, 12.52, 12.96, 12.96, 12.96, 13.41, 13.41, 13.41, 13.41, 13.86, 13.86, 13.86, 13.86, 13.86, 13.86, 13.86, 13.86, 13.86, 13.86, 13.86, 13.86, 13.41, 13.41, 13.41, 13.41, 13.41, 13.41, 12.96, 12.96, 12.96, 12.96, 12.52, 12.52, 12.52, 12.07, 12.07, 12.07, 12.07, 12.07, 12.07, 12.07, 12.07, 12.07, 11.62, 11.62, 11.62, 12.07, 11.18, 8.94, 8.49, 9.83, 10.28, 10.28, 10.73, 11.18, 11.18, 10.73, 10.73, 10.73, 10.28, 10.28, 9.83, 9.83, 9.83, 10.28, 10.28, 10.73, 11.18, 10.73, 10.28, 10.28, 9.83, 9.83, 9.83, 6.71, 6.71, 7.15, 7.15, 7.6, 8.05, 8.94, 8.94, 9.39, 9.83, 9.83, 10.28, 10.28, 10.73, 10.73, 11.18, 11.18, 11.62, 11.62, 11.62, 12.07, 12.07, 12.07, 12.52, 12.52, 12.52, 12.52, 12.96, 12.96, 12.96, 12.96, 12.96, 13.41, 13.41, 13.41, 13.41, 13.41, 13.41, 13.41, 13.41, 13.41, 13.41, 13.41, 13.41, 13.41, 13.41, 13.41, 13.41, 13.41, 12.96, 12.96, 12.96, 12.96, 12.52, 12.52, 12.52, 12.52, 12.07, 12.07, 11.62, 11.62, 11.62, 11.62, 11.62, 11.62, 11.62, 11.62, 11.62, 11.62, 11.62, 11.62, 11.62, 10.28, 8.49, 8.94, 10.28, 10.73, 10.73, 11.18, 11.18, 11.18, 11.18, 11.18, 10.73, 10.28, 10.28, 10.28, 10.28, 10.28, 10.28, 10.28, 11.18, 11.18, 10.73, 10.73, 10.28, 10.28, 10.28, 6.71, 6.71, 7.15, 7.15, 7.6, 8.05, 8.49, 8.94, 9.39, 9.39, 9.83, 10.28, 10.28, 10.73, 10.73, 10.73, 11.18, 11.18, 11.62, 11.62, 11.62, 12.07, 12.07, 12.07, 12.07, 12.52, 12.52, 12.52, 12.52, 12.96, 12.96, 12.96, 12.96, 12.96, 12.96, 12.96, 13.41, 13.41, 13.41, 13.41, 13.41, 13.41, 13.41, 13.41, 13.41, 13.41, 12.96, 12.96, 12.96, 12.96, 12.96, 12.52, 12.52, 12.52, 12.52, 12.52, 12.07, 12.07, 12.07, 12.07, 11.62, 11.18, 11.18, 11.18, 11.18, 11.18, 11.18, 11.18, 11.18, 11.18, 11.62, 11.62, 10.73, 9.83, 8.94, 9.83, 10.73, 10.73, 10.73, 11.18, 11.18, 11.18, 11.18, 10.73, 10.73, 10.28, 10.28, 10.28, 10.28, 10.28, 9.83, 10.28, 10.73, 10.73, 11.18, 10.73, 10.73, 10.73, 6.71, 6.71, 7.15, 7.15, 7.6, 8.05, 8.05, 8.49, 9.39, 9.39, 9.83, 9.83, 10.28, 10.28, 10.73, 10.73, 10.73, 11.18, 11.18, 11.62, 11.62, 11.62, 11.62, 12.07, 12.07, 12.07, 12.52, 12.52, 12.52, 12.52, 12.52, 12.52, 12.52, 12.52, 12.52, 12.52, 12.52, 12.96, 12.96, 12.96, 12.96, 12.96, 12.96, 12.96, 12.96, 12.96, 12.96, 12.96, 12.96, 12.52, 12.52, 12.52, 12.52, 12.52, 12.07, 12.07, 12.07, 12.07, 12.07, 11.62, 11.62, 11.18, 11.18, 11.18, 11.18, 10.73, 10.73, 10.73, 10.73, 10.73, 11.18, 11.18, 11.18, 10.28, 9.83, 9.83, 10.28, 11.18, 10.73, 10.73, 10.73, 10.73, 10.73, 10.73, 10.28, 10.28, 10.28, 10.28, 10.28, 10.28, 9.83, 9.39, 9.83, 10.28, 10.73, 11.18, 11.18, 11.18, 6.71, 6.71, 7.15, 7.15, 7.6, 8.05, 8.05, 8.49, 8.94, 9.39, 9.39, 9.83, 9.83, 10.28, 10.28, 10.73, 10.73, 11.18, 11.18, 11.18, 11.18, 11.62, 11.62, 11.62, 12.07, 12.07, 12.07, 12.07, 12.07, 12.07, 12.07, 12.07, 12.07, 12.07, 12.52, 12.52, 12.52, 12.52, 12.52, 12.52, 12.52, 12.52, 12.52, 12.52, 12.52, 12.52, 12.52, 12.52, 12.52, 12.52, 12.52, 12.07, 12.07, 12.07, 12.07, 12.07, 12.07, 11.62, 11.62, 11.62, 11.62, 11.18, 11.18, 11.18, 10.73, 10.73, 10.73, 10.73, 10.73, 10.73, 10.73, 11.18, 11.18, 10.73, 10.73, 10.28, 10.28, 10.73, 11.18, 10.73, 10.73, 10.28, 10.28, 10.28, 10.28, 10.73, 10.28, 10.28, 9.83, 9.83, 9.83, 9.39, 9.39, 9.39, 10.28, 10.73, 11.18, 11.18, 6.71, 6.71, 7.15, 7.15, 7.6, 8.05, 8.05, 8.49, 8.49, 8.94, 9.39, 9.83, 9.83, 9.83, 10.28, 10.28, 10.73, 10.73, 10.73, 11.18, 11.18, 11.18, 11.62, 11.62, 11.62, 11.62, 11.62, 11.62, 11.62, 11.62, 11.62, 12.07, 12.07, 12.07, 12.07, 12.07, 12.07, 12.07, 12.07, 12.07, 12.52, 12.07, 12.07, 12.07, 12.07, 12.07, 12.07, 12.07, 12.07, 12.07, 12.07, 12.07, 12.07, 12.07, 12.07, 11.62, 11.62, 11.62, 11.62, 11.62, 11.18, 11.18, 11.18, 10.73, 10.73, 10.28, 10.73, 10.73, 10.73, 10.73, 10.73, 10.73, 10.73, 11.18, 11.18, 11.18, 10.28, 10.28, 10.73, 11.18, 10.73, 10.28, 9.83, 9.83, 10.28, 10.28, 10.28, 9.83, 9.83, 9.39, 9.39, 9.39, 9.39, 8.94, 9.39, 10.28, 10.73, 10.73, 6.71, 6.71, 7.15, 7.15, 7.6, 8.05, 8.05, 8.49, 8.49, 8.94, 8.94, 9.39, 9.83, 9.83, 10.28, 10.28, 10.28, 10.73, 10.73, 10.73, 10.73, 11.18, 10.73, 11.18, 11.18, 11.18, 11.18, 11.62, 11.62, 11.62, 11.62, 11.62, 11.62, 11.62, 12.07, 12.07, 12.07, 12.07, 12.07, 12.07, 12.07, 12.07, 12.07, 12.07, 12.07, 12.07, 11.62, 12.07, 12.07, 11.62, 11.62, 11.62, 12.07, 11.62, 11.62, 11.62, 11.62, 11.62, 11.62, 11.18, 11.18, 11.18, 11.18, 10.73, 10.73, 10.28, 10.28, 10.28, 10.28, 10.73, 10.73, 10.28, 10.28, 10.73, 11.62, 11.18, 10.73, 10.28, 10.28, 11.18, 11.18, 10.73, 10.28, 10.28, 10.28, 10.28, 9.83, 9.83, 9.83, 9.39, 9.39, 9.39, 9.39, 8.94, 8.94, 9.83, 10.28, 10.28, 6.71, 6.71, 7.15, 7.15, 7.6, 7.6, 8.05, 8.49, 8.49, 8.94, 8.94, 9.39, 9.39, 9.83, 9.83, 10.28, 10.28, 10.28, 10.73, 10.73, 10.73, 10.73, 10.73, 10.73, 10.73, 11.18, 11.18, 11.18, 11.18, 11.18, 11.18, 11.18, 11.18, 11.62, 11.62, 11.62, 11.62, 11.62, 11.62, 11.62, 11.62, 11.62, 11.62, 11.62, 11.62, 11.62, 11.62, 11.62, 11.62, 11.62, 11.62, 11.62, 11.62, 11.62, 11.62, 11.62, 11.62, 11.18, 11.18, 11.18, 11.18, 11.18, 11.18, 10.73, 10.73, 10.73, 10.73, 10.28, 10.28, 10.28, 10.28, 10.28, 10.28, 9.83, 10.73, 11.18, 10.73, 10.28, 10.73, 10.73, 10.73, 11.18, 10.73, 10.73, 10.73, 10.28, 9.83, 9.83, 9.83, 9.39, 9.39, 9.39, 9.39, 9.39, 9.39, 9.39, 9.83, 9.83, 6.71, 6.71, 7.15, 7.15, 7.6, 7.6, 8.05, 8.05, 8.49, 8.49, 8.94, 8.94, 9.39, 9.39, 9.83, 9.83, 10.28, 10.28, 10.28, 10.28, 10.28, 10.28, 10.28, 10.73, 10.73, 10.73, 10.73, 10.73, 10.73, 10.73, 10.73, 11.18, 11.18, 11.18, 11.18, 11.18, 11.62, 11.62, 11.62, 11.62, 11.62, 11.62, 11.62, 11.62, 11.62, 11.62, 11.62, 11.62, 11.62, 11.62, 11.62, 11.62, 11.18, 11.18, 11.18, 11.18, 11.18, 11.18, 11.18, 11.18, 11.18, 11.18, 10.73, 10.73, 10.73, 10.73, 10.73, 10.73, 10.28, 9.83, 10.28, 10.28, 10.28, 9.83, 9.39, 9.83, 10.28, 10.28, 10.28, 10.73, 10.73, 11.18, 11.18, 11.18, 10.73, 10.73, 10.28, 9.83, 9.83, 9.83, 9.83, 9.83, 9.83, 9.83, 9.39, 9.39, 9.83, 9.83, 6.71, 6.71, 7.15, 7.15, 7.6, 7.6, 8.05, 8.05, 8.49, 8.49, 8.49, 8.94, 8.94, 9.39, 9.39, 9.83, 9.83, 9.83, 9.83, 9.83, 10.28, 10.28, 10.28, 10.28, 10.28, 10.73, 10.73, 10.73, 10.73, 10.73, 10.73, 10.73, 10.73, 10.73, 11.18, 11.18, 11.18, 11.18, 11.18, 11.18, 11.18, 11.18, 11.18, 11.18, 11.18, 11.18, 11.18, 11.18, 11.18, 11.18, 11.18, 11.18, 11.18, 11.18, 11.18, 11.18, 11.18, 11.18, 11.18, 11.18, 10.73, 10.73, 10.73, 10.73, 10.73, 10.73, 10.28, 10.73, 10.73, 10.28, 10.28, 9.83, 10.28, 10.28, 9.39, 8.49, 9.83, 10.73, 10.73, 10.28, 10.73, 10.73, 11.18, 11.18, 11.18, 10.73, 10.73, 10.28, 9.83, 10.28, 10.28, 10.28, 10.28, 9.83, 9.39, 9.39, 9.39, 9.39, 6.71, 6.71, 7.15, 7.15, 7.6, 7.6, 7.6, 8.05, 8.05, 8.49, 8.49, 8.49, 8.94, 8.94, 9.39, 9.39, 9.39, 9.39, 9.83, 9.83, 9.83, 9.83, 9.83, 10.28, 10.28, 10.28, 10.28, 10.28, 10.28, 10.28, 10.73, 10.73, 10.73, 10.73, 10.73, 10.73, 10.73, 10.73, 10.73, 10.73, 10.73, 10.73, 10.73, 11.18, 11.18, 11.18, 11.18, 11.18, 11.18, 11.18, 11.18, 11.18, 11.18, 10.73, 10.73, 10.73, 10.73, 10.73, 10.73, 10.73, 10.73, 10.73, 10.73, 10.73, 10.73, 10.28, 10.28, 10.28, 10.28, 10.28, 10.28, 9.83, 10.28, 10.28, 9.83, 8.49, 8.94, 10.28, 10.73, 10.73, 10.73, 10.73, 11.18, 11.18, 11.18, 10.73, 10.73, 10.73, 10.28, 10.73, 10.73, 10.73, 10.73, 10.28, 9.83, 9.39, 9.39, 9.39, 6.71, 6.71, 6.71, 7.15, 7.15, 7.6, 7.6, 7.6, 8.05, 8.05, 8.49, 8.49, 8.49, 8.94, 8.94, 8.94, 9.39, 9.39, 9.39, 9.39, 9.83, 9.83, 9.83, 9.83, 9.83, 9.83, 9.83, 10.28, 10.28, 10.28, 10.28, 10.73, 10.73, 10.73, 10.73, 10.73, 10.73, 10.73, 10.73, 10.73, 10.73, 10.73, 10.73, 10.73, 10.73, 10.73, 10.73, 10.73, 10.73, 10.73, 10.73, 10.73, 10.73, 10.73, 10.73, 10.73, 10.73, 10.73, 10.73, 10.73, 10.73, 10.73, 10.73, 10.73, 10.28, 10.28, 10.28, 10.28, 10.28, 10.28, 10.28, 10.28, 10.28, 10.28, 9.83, 9.39, 8.94, 9.39, 10.28, 10.28, 10.28, 10.73, 10.73, 10.73, 10.73, 10.73, 10.73, 10.73, 10.73, 11.18, 11.18, 11.18, 10.73, 10.73, 10.28, 9.83, 9.39, 9.39, 6.71, 6.71, 6.71, 7.15, 7.15, 7.15, 7.6, 7.6, 7.6, 8.05, 8.05, 8.49, 8.49, 8.49, 8.49, 8.94, 8.94, 8.94, 9.39, 9.39, 9.39, 9.39, 9.83, 9.83, 9.83, 9.83, 9.83, 9.83, 9.83, 10.28, 10.28, 10.28, 10.28, 10.28, 10.28, 10.28, 10.28, 10.28, 10.28, 10.28, 10.28, 10.28, 10.28, 10.73, 10.73, 10.73, 10.73, 10.73, 10.73, 10.73, 10.73, 10.73, 10.73, 10.73, 10.73, 10.73, 10.28, 10.28, 10.28, 10.28, 10.28, 10.73, 10.28, 10.28, 10.28, 10.28, 10.28, 10.28, 10.28, 10.28, 10.28, 10.28, 10.28, 10.28, 10.28, 9.83, 9.39, 8.94, 9.39, 9.83, 10.28, 10.28, 10.28, 10.73, 10.28, 10.73, 10.73, 10.73, 11.18, 11.18, 11.18, 11.18, 10.73, 10.73, 10.73, 10.28, 9.83, 9.83, 6.71, 6.71, 6.71, 6.71, 7.15, 7.15, 7.15, 7.6, 7.6, 7.6, 8.05, 8.05, 8.05, 8.05, 8.49, 8.49, 8.94, 8.94, 8.94, 8.94, 9.39, 9.39, 9.39, 9.39, 9.83, 9.83, 9.83, 9.83, 9.83, 9.83, 9.83, 10.28, 10.28, 10.28, 10.28, 10.28, 10.28, 10.28, 10.28, 10.28, 10.28, 10.28, 10.28, 10.28, 10.28, 10.73, 10.73, 10.73, 10.73, 10.73, 10.28, 10.28, 10.28, 10.28, 10.28, 10.28, 10.28, 10.28, 10.28, 10.28, 10.28, 10.28, 10.28, 10.28, 10.28, 10.28, 10.28, 10.28, 10.28, 10.28, 10.28, 10.28, 10.28, 9.83, 9.83, 9.83, 9.83, 9.39, 8.94, 8.94, 9.39, 9.83, 9.83, 9.83, 9.83, 10.28, 10.28, 10.73, 11.18, 11.18, 11.18, 11.18, 10.73, 10.73, 10.73, 10.73, 10.73, 10.28, 6.26, 6.26, 6.71, 6.71, 6.71, 7.15, 7.15, 7.15, 7.6, 7.6, 7.6, 7.6, 8.05, 8.05, 8.05, 8.49, 8.49, 8.49, 8.94, 8.94, 8.94, 8.94, 9.39, 9.39, 9.39, 9.39, 9.39, 9.83, 9.83, 9.83, 9.83, 9.83, 9.83, 9.83, 10.28, 10.28, 10.28, 9.83, 9.83, 9.83, 10.28, 10.28, 10.28, 10.28, 10.28, 10.28, 10.28, 10.28, 10.28, 10.28, 10.28, 10.28, 10.28, 10.28, 10.28, 10.28, 10.28, 10.28, 10.28, 10.28, 10.28, 10.28, 10.28, 10.28, 10.28, 10.28, 10.28, 10.28, 10.28, 10.28, 10.28, 10.28, 10.28, 9.83, 9.39, 9.39, 9.39, 9.39, 9.39, 9.39, 9.39, 9.39, 9.39, 8.94, 9.39, 9.83, 10.28, 10.73, 10.73, 10.73, 10.73, 10.73, 10.73, 10.73, 11.18, 11.18, 11.18, 10.73, 6.26, 6.26, 6.26, 6.71, 6.71, 6.71, 7.15, 7.15, 7.15, 7.6, 7.6, 7.6, 7.6, 8.05, 8.05, 8.05, 8.05, 8.49, 8.49, 8.49, 8.94, 8.94, 8.94, 8.94, 9.39, 9.39, 9.39, 9.39, 9.83, 9.83, 9.83, 9.83, 9.83, 9.83, 9.83, 9.83, 9.83, 9.83, 9.83, 9.83, 9.83, 9.83, 9.83, 9.83, 9.83, 9.83, 10.28, 10.28, 10.28, 10.28, 10.28, 10.28, 10.28, 10.28, 10.28, 10.28, 10.28, 10.28, 10.28, 9.83, 9.83, 9.83, 9.83, 9.83, 10.28, 10.28, 10.28, 10.28, 10.28, 10.28, 10.28, 10.28, 10.28, 10.28, 9.39, 8.49, 8.49, 8.94, 9.39, 9.39, 9.39, 9.83, 9.39, 9.39, 9.39, 9.83, 10.28, 10.28, 10.73, 10.28, 10.28, 10.73, 10.73, 11.18, 11.18, 11.18, 11.18, 11.18, 6.26, 6.26, 6.26, 6.26, 6.71, 6.71, 6.71, 7.15, 7.15, 7.15, 7.15, 7.6, 7.6, 7.6, 7.6, 8.05, 8.05, 8.05, 8.49, 8.49, 8.49, 8.49, 8.94, 8.94, 8.94, 8.94, 9.39, 9.39, 9.39, 9.39, 9.39, 9.39, 9.39, 9.39, 9.39, 9.83, 9.83, 9.83, 9.83, 9.83, 9.83, 9.83, 9.83, 9.83, 9.83, 9.83, 9.83, 9.83, 9.83, 9.83, 9.83, 9.83, 9.83, 9.83, 9.83, 9.83, 9.83, 9.83, 9.83, 9.83, 9.83, 9.83, 9.83, 9.83, 9.83, 9.83, 10.28, 10.28, 10.28, 10.28, 10.28, 10.28, 10.28, 10.28, 9.83, 8.94, 8.05, 7.6, 8.05, 8.94, 9.39, 9.83, 9.83, 9.83, 9.83, 10.28, 10.28, 10.73, 10.73, 10.73, 10.73, 10.73, 11.18, 11.18, 11.62, 11.62, 11.62, 11.62, 5.81, 5.81, 6.26, 6.26, 6.26, 6.71, 6.71, 6.71, 6.71, 7.15, 7.15, 7.15, 7.15, 7.6, 7.6, 7.6, 7.6, 8.05, 8.05, 8.05, 8.49, 8.49, 8.49, 8.49, 8.94, 8.94, 8.94, 8.94, 9.39, 9.39, 9.39, 9.39, 9.39, 9.39, 9.39, 9.39, 9.39, 9.39, 9.39, 9.39, 9.39, 9.83, 9.83, 9.83, 9.83, 9.83, 9.83, 9.83, 9.83, 9.83, 9.83, 9.83, 9.83, 9.83, 9.83, 9.83, 9.83, 9.83, 9.83, 9.83, 9.83, 9.83, 9.83, 9.83, 9.83, 9.83, 9.83, 10.28, 9.83, 9.83, 10.28, 10.28, 10.28, 10.28, 10.28, 9.83, 8.49, 7.6, 7.15, 8.05, 8.94, 9.39, 9.83, 10.28, 10.73, 10.73, 10.73, 10.73, 10.73, 10.73, 11.18, 11.18, 11.62, 11.62, 11.62, 11.62, 11.62, 11.62, 5.81, 5.81, 5.81, 6.26, 6.26, 6.26, 6.71, 6.71, 6.71, 6.71, 7.15, 7.15, 7.15, 7.15, 7.6, 7.6, 7.6, 7.6, 7.6, 8.05, 8.05, 8.05, 8.49, 8.49, 8.49, 8.94, 8.94, 8.94, 8.94, 8.94, 8.94, 8.94, 8.94, 8.94, 9.39, 9.39, 9.39, 9.39, 9.39, 9.39, 9.39, 9.39, 9.39, 9.39, 9.39, 9.39, 9.39, 9.39, 9.39, 9.39, 9.39, 9.39, 9.83, 9.83, 9.83, 9.83, 9.83, 9.83, 9.83, 9.83, 9.83, 9.83, 9.83, 9.83, 9.83, 9.83, 9.83, 9.83, 9.83, 9.83, 10.28, 10.28, 10.28, 10.28, 10.28, 10.28, 9.83, 8.49, 7.15, 7.15, 7.6, 8.49, 9.39, 9.83, 10.73, 11.18, 11.18, 11.18, 11.18, 11.18, 11.62, 12.07, 12.07, 12.07, 12.07, 11.62, 11.62, 11.62, 5.81, 5.81, 5.81, 5.81, 5.81, 6.26, 6.26, 6.26, 6.71, 6.71, 6.71, 7.15, 7.15, 7.15, 7.15, 7.15, 7.6, 7.6, 7.6, 7.6, 8.05, 8.05, 8.05, 8.49, 8.49, 8.49, 8.49, 8.49, 8.94, 8.94, 8.94, 8.94, 8.94, 8.94, 8.94, 8.94, 8.94, 8.94, 9.39, 9.39, 9.39, 9.39, 9.39, 9.39, 9.39, 9.39, 9.39, 9.39, 9.39, 9.39, 9.39, 9.39, 9.39, 9.39, 9.39, 9.39, 9.39, 9.39, 9.83, 9.83, 9.83, 9.83, 9.83, 9.83, 9.83, 9.83, 9.83, 9.83, 9.83, 9.83, 10.28, 10.28, 10.28, 10.28, 10.28, 10.28, 10.28, 9.39, 8.94, 7.6, 7.15, 7.6, 8.49, 9.39, 10.28, 10.73, 10.73, 10.73, 11.18, 11.62, 12.07, 12.07, 12.07, 12.07, 12.07, 12.07, 12.07, 12.07, 5.36, 5.36, 5.36, 5.81, 5.81, 5.81, 5.81, 6.26, 6.26, 6.71, 6.71, 6.71, 6.71, 7.15, 7.15, 7.15, 7.15, 7.15, 7.6, 7.6, 7.6, 8.05, 8.05, 8.05, 8.05, 8.49, 8.49, 8.49, 8.49, 8.49, 8.49, 8.94, 8.94, 8.94, 8.94, 8.94, 8.94, 8.94, 8.94, 8.94, 8.94, 8.94, 8.94, 8.94, 8.94, 8.94, 8.94, 8.94, 8.94, 8.94, 9.39, 9.39, 9.39, 9.39, 9.39, 9.39, 9.39, 9.39, 9.39, 9.39, 9.39, 9.39, 9.39, 9.83, 9.83, 9.83, 9.83, 9.83, 9.83, 9.83, 10.28, 10.28, 10.28, 10.28, 10.28, 10.28, 10.28, 9.83, 9.83, 8.94, 8.05, 7.6, 8.05, 8.94, 9.83, 10.28, 10.28, 10.73, 11.18, 11.62, 12.07, 12.07, 12.07, 12.07, 12.07, 12.07, 12.07, 12.07, 5.36, 5.36, 5.36, 5.36, 5.36, 5.81, 5.81, 5.81, 6.26, 6.26, 6.71, 6.71, 6.71, 6.71, 7.15, 7.15, 7.15, 7.15, 7.15, 7.15, 7.6, 7.6, 8.05, 8.05, 8.05, 8.05, 8.05, 8.05, 8.49, 8.49, 8.49, 8.49, 8.49, 8.94, 8.94, 8.94, 8.94, 8.94, 8.94, 8.94, 8.94, 8.94, 8.94, 8.94, 8.94, 8.94, 8.94, 8.94, 8.94, 8.94, 8.94, 8.94, 8.94, 8.94, 9.39, 9.39, 9.39, 9.39, 9.39, 9.39, 9.39, 9.39, 9.39, 9.39, 9.39, 9.83, 9.83, 9.83, 9.83, 9.83, 9.83, 9.83, 10.28, 10.28, 10.28, 10.28, 10.28, 10.28, 9.83, 9.83, 8.94, 8.05, 8.05, 8.94, 9.83, 9.83, 10.28, 10.73, 11.18, 11.62, 12.07, 12.07, 12.07, 12.07, 12.07, 11.62, 11.62, 11.62, 5.36, 5.36, 5.36, 5.36, 5.36, 5.81, 5.81, 5.81, 5.81, 6.26, 6.26, 6.26, 6.71, 6.71, 6.71, 6.71, 7.15, 7.15, 7.15, 7.15, 7.15, 7.6, 7.6, 7.6, 7.6, 8.05, 8.05, 8.05, 8.05, 8.05, 8.49, 8.49, 8.49, 8.49, 8.49, 8.94, 8.49, 8.49, 8.49, 8.49, 8.49, 8.49, 8.49, 8.49, 8.49, 8.94, 8.94, 8.94, 8.94, 8.94, 8.94, 8.94, 8.94, 8.94, 8.94, 8.94, 8.94, 9.39, 9.39, 9.39, 9.39, 9.39, 9.39, 9.39, 9.39, 9.39, 9.83, 9.83, 9.83, 9.83, 9.83, 9.83, 9.83, 10.28, 10.28, 10.28, 10.28, 10.28, 10.28, 9.83, 9.83, 8.94, 8.05, 8.49, 9.39, 9.83, 10.28, 10.28, 11.18, 11.62, 11.62, 11.62, 11.62, 11.62, 11.62, 11.62, 11.62, 11.62, 4.92, 4.92, 4.92, 5.36, 5.36, 5.36, 5.81, 5.81, 5.81, 5.81, 6.26, 6.26, 6.26, 6.71, 6.71, 6.71, 6.71, 7.15, 7.15, 7.15, 7.15, 7.6, 7.6, 7.6, 7.6, 7.6, 7.6, 7.6, 8.05, 8.05, 8.05, 8.05, 8.49, 8.49, 8.49, 8.49, 8.49, 8.49, 8.49, 8.49, 8.49, 8.49, 8.49, 8.49, 8.49, 8.49, 8.49, 8.49, 8.49, 8.49, 8.49, 8.49, 8.94, 8.94, 8.94, 8.94, 8.94, 8.94, 8.94, 8.94, 9.39, 9.39, 9.39, 9.39, 9.39, 9.39, 9.39, 9.39, 9.83, 9.83, 9.83, 9.83, 9.83, 9.83, 10.28, 10.28, 10.28, 10.28, 10.28, 9.83, 9.83, 9.39, 8.49, 8.49, 9.39, 9.83, 10.28, 10.28, 10.73, 11.18, 11.18, 11.18, 11.18, 11.18, 11.18, 11.18, 11.18, 11.18, 4.92, 4.92, 4.92, 4.92, 5.36, 5.36, 5.36, 5.81, 5.81, 5.81, 5.81, 6.26, 6.26, 6.26, 6.26, 6.71, 6.71, 6.71, 7.15, 7.15, 7.15, 7.15, 7.15, 7.6, 7.6, 7.6, 7.6, 7.6, 7.6, 7.6, 8.05, 8.05, 8.05, 8.05, 8.49, 8.49, 8.49, 8.49, 8.49, 8.49, 8.49, 8.49, 8.49, 8.49, 8.49, 8.49, 8.49, 8.49, 8.49, 8.49, 8.49, 8.49, 8.49, 8.49, 8.94, 8.94, 8.94, 8.94, 8.94, 8.94, 8.94, 8.94, 8.94, 9.39, 9.39, 9.39, 9.39, 9.39, 9.39, 9.83, 9.83, 9.83, 9.83, 10.28, 10.28, 10.28, 10.28, 10.28, 10.28, 10.28, 9.83, 9.83, 8.94, 8.49, 8.94, 9.83, 9.83, 10.28, 10.28, 10.28, 10.73, 11.18, 11.18, 11.18, 10.73, 10.73, 10.73, 10.73, 4.92, 4.92, 4.92, 4.92, 5.36, 5.36, 5.36, 5.36, 5.81, 5.81, 5.81, 5.81, 6.26, 6.26, 6.26, 6.26, 6.71, 6.71, 6.71, 6.71, 7.15, 7.15, 7.15, 7.15, 7.15, 7.6, 7.6, 7.6, 7.6, 7.6, 7.6, 7.6, 8.05, 8.05, 8.05, 8.05, 8.05, 8.49, 8.49, 8.49, 8.49, 8.49, 8.05, 8.05, 8.05, 8.05, 8.05, 8.05, 8.49, 8.49, 8.49, 8.49, 8.49, 8.49, 8.49, 8.49, 8.49, 8.94, 8.94, 8.94, 8.94, 8.94, 8.94, 8.94, 8.94, 9.39, 9.39, 9.39, 9.39, 9.39, 9.83, 9.83, 9.83, 10.28, 10.28, 10.28, 10.28, 10.28, 10.28, 10.28, 9.83, 9.83, 9.39, 8.94, 9.83, 10.28, 10.28, 10.28, 10.28, 10.28, 10.28, 10.73, 10.73, 10.73, 10.73, 10.73, 10.73, 10.73, 4.92, 4.92, 4.92, 4.92, 5.36, 5.36, 5.36, 5.36, 5.81, 5.81, 5.81, 5.81, 5.81, 6.26, 6.26, 6.26, 6.71, 6.71, 6.71, 6.71, 6.71, 6.71, 7.15, 7.15, 7.15, 7.15, 7.15, 7.6, 7.6, 7.6, 7.6, 7.6, 7.6, 7.6, 7.6, 8.05, 8.05, 8.05, 8.05, 8.05, 8.05, 8.05, 8.05, 8.05, 8.05, 8.05, 8.05, 8.05, 8.05, 8.05, 8.05, 8.49, 8.49, 8.49, 8.49, 8.49, 8.49, 8.49, 8.49, 8.94, 8.94, 8.94, 8.94, 8.94, 8.94, 9.39, 9.39, 9.39, 9.39, 9.39, 9.83, 9.83, 9.83, 9.83, 10.28, 10.28, 10.28, 10.28, 10.28, 10.28, 10.28, 9.83, 9.83, 8.94, 9.83, 10.28, 10.73, 10.28, 10.28, 10.28, 10.28, 10.73, 10.73, 10.73, 10.73, 10.28, 10.28, 10.28, 4.92, 4.92, 4.92, 4.92, 4.92, 5.36, 5.36, 5.36, 5.36, 5.81, 5.81, 5.81, 5.81, 6.26, 6.26, 6.26, 6.26, 6.26, 6.71, 6.71, 6.71, 6.71, 6.71, 7.15, 7.15, 7.15, 7.15, 7.15, 7.15, 7.15, 7.15, 7.6, 7.6, 7.6, 7.6, 7.6, 7.6, 8.05, 8.05, 8.05, 8.05, 8.05, 8.05, 8.05, 8.05, 8.05, 8.05, 8.05, 8.05, 8.05, 8.05, 8.05, 8.05, 8.49, 8.49, 8.49, 8.49, 8.49, 8.49, 8.49, 8.49, 8.94, 8.94, 8.94, 8.94, 8.94, 9.39, 9.39, 9.39, 9.39, 9.83, 9.83, 9.83, 9.83, 10.28, 10.28, 10.28, 10.28, 10.28, 10.73, 10.28, 10.28, 9.83, 8.94, 9.39, 10.28, 10.73, 10.73, 10.73, 10.73, 10.73, 10.73, 10.73, 10.28, 10.28, 10.28, 10.28, 10.28, 4.47, 4.47, 4.92, 4.92, 4.92, 4.92, 5.36, 5.36, 5.36, 5.36, 5.81, 5.81, 5.81, 5.81, 6.26, 6.26, 6.26, 6.26, 6.26, 6.71, 6.71, 6.71, 6.71, 6.71, 7.15, 7.15, 7.15, 7.15, 7.15, 7.15, 7.15, 7.15, 7.15, 7.15, 7.15, 7.15, 7.6, 7.6, 7.6, 7.6, 8.05, 8.05, 8.05, 8.05, 8.05, 8.05, 8.05, 8.05, 8.05, 8.05, 8.05, 8.05, 8.05, 8.05, 8.05, 8.49, 8.49, 8.49, 8.49, 8.49, 8.49, 8.49, 8.94, 8.94, 8.94, 8.94, 8.94, 9.39, 9.39, 9.39, 9.83, 9.83, 9.83, 9.83, 9.83, 10.28, 10.28, 10.28, 10.28, 10.28, 10.28, 10.28, 9.83, 8.94, 9.39, 10.28, 10.28, 10.28, 10.28, 10.28, 10.28, 10.28, 10.28, 10.28, 10.28, 10.28, 10.28, 10.28, 4.47, 4.47, 4.92, 4.92, 4.92, 4.92, 4.92, 5.36, 5.36, 5.36, 5.36, 5.81, 5.81, 5.81, 5.81, 6.26, 6.26, 6.26, 6.26, 6.26, 6.71, 6.71, 6.71, 6.71, 6.71, 6.71, 6.71, 7.15, 7.15, 7.15, 7.15, 7.15, 7.15, 7.15, 7.15, 7.15, 7.15, 7.15, 7.6, 7.6, 7.6, 7.6, 8.05, 8.05, 8.05, 8.05, 8.05, 8.05, 8.05, 8.05, 8.05, 8.05, 8.05, 8.05, 8.05, 8.05, 8.05, 8.49, 8.49, 8.49, 8.49, 8.49, 8.94, 8.94, 8.94, 8.94, 8.94, 9.39, 9.39, 9.39, 9.83, 9.83, 9.83, 9.83, 9.83, 10.28, 10.28, 10.28, 10.28, 10.28, 10.28, 10.28, 10.28, 9.39, 9.39, 10.28, 10.28, 10.28, 10.28, 10.28, 10.28, 10.28, 10.28, 10.28, 10.28, 10.28, 10.28, 10.28, 4.47, 4.47, 4.47, 4.92, 4.92, 4.92, 4.92, 4.92, 5.36, 5.36, 5.36, 5.36, 5.81, 5.81, 5.81, 5.81, 5.81, 6.26, 6.26, 6.26, 6.26, 6.26, 6.71, 6.71, 6.71, 6.71, 6.71, 6.71, 6.71, 6.71, 6.71, 6.71, 6.71, 6.71, 6.71, 7.15, 7.15, 7.15, 7.15, 7.15, 7.6, 7.6, 7.6, 7.6, 7.6, 7.6, 7.6, 7.6, 7.6, 7.6, 7.6, 8.05, 8.05, 8.05, 8.05, 8.05, 8.05, 8.05, 8.49, 8.49, 8.49, 8.49, 8.49, 8.94, 8.94, 8.94, 8.94, 9.39, 9.39, 9.39, 9.39, 9.83, 9.83, 9.83, 9.83, 9.83, 9.83, 10.28, 10.28, 10.28, 10.28, 10.28, 10.28, 9.83, 8.94, 9.83, 10.73, 10.28, 10.28, 10.28, 9.83, 9.83, 9.83, 9.83, 9.83, 10.28, 10.28, 10.28, 4.47, 4.47, 4.47, 4.47, 4.92, 4.92, 4.92, 4.92, 5.36, 5.36, 5.36, 5.36, 5.36, 5.81, 5.81, 5.81, 5.81, 5.81, 6.26, 6.26, 6.26, 6.26, 6.26, 6.26, 6.26, 6.71, 6.71, 6.71, 6.71, 6.71, 6.71, 6.71, 6.71, 6.71, 6.71, 6.71, 6.71, 6.71, 7.15, 7.15, 7.15, 7.15, 7.6, 7.6, 7.6, 7.6, 7.6, 7.6, 7.6, 7.6, 7.6, 7.6, 8.05, 8.05, 8.05, 8.05, 8.05, 8.05, 8.49, 8.49, 8.49, 8.49, 8.49, 8.49, 8.94, 8.94, 8.94, 8.94, 9.39, 9.39, 9.39, 9.39, 9.83, 9.83, 9.83, 9.83, 9.83, 10.28, 10.28, 10.28, 10.28, 10.73, 10.28, 10.28, 9.39, 9.39, 10.28, 10.73, 10.73, 10.28, 10.28, 9.83, 9.83, 9.83, 9.83, 10.28, 10.28, 10.28, 4.47, 4.47, 4.47, 4.47, 4.47, 4.92, 4.92, 4.92, 4.92, 5.36, 5.36, 5.36, 5.36, 5.36, 5.81, 5.81, 5.81, 5.81, 5.81, 6.26, 6.26, 6.26, 6.26, 6.26, 6.26, 6.26, 6.26, 6.26, 6.26, 6.71, 6.71, 6.71, 6.71, 6.71, 6.71, 6.71, 6.71, 6.71, 6.71, 6.71, 7.15, 7.15, 7.15, 7.15, 7.6, 7.6, 7.6, 7.6, 7.6, 7.6, 7.6, 7.6, 7.6, 7.6, 8.05, 8.05, 8.05, 8.05, 8.05, 8.49, 8.49, 8.49, 8.49, 8.49, 8.49, 8.94, 8.94, 8.94, 9.39, 9.39, 9.39, 9.39, 9.39, 9.83, 9.83, 9.83, 9.83, 9.83, 10.28, 10.28, 10.28, 10.28, 10.28, 10.28, 9.83, 8.94, 9.39, 10.73, 11.18, 11.18, 10.73, 10.73, 10.28, 10.28, 10.28, 10.28, 10.28, 10.28, 4.47, 4.47, 4.47, 4.47, 4.47, 4.47, 4.92, 4.92, 4.92, 4.92, 5.36, 5.36, 5.36, 5.36, 5.36, 5.81, 5.81, 5.81, 5.81, 5.81, 5.81, 5.81, 5.81, 5.81, 6.26, 6.26, 6.26, 6.26, 6.26, 6.26, 6.26, 6.71, 6.71, 6.71, 6.71, 6.71, 6.71, 6.71, 6.71, 6.71, 6.71, 7.15, 7.15, 7.15, 7.15, 7.15, 7.6, 7.6, 7.6, 7.6, 7.6, 7.6, 7.6, 7.6, 7.6, 8.05, 8.05, 8.05, 8.05, 8.05, 8.49, 8.49, 8.49, 8.49, 8.49, 8.94, 8.94, 8.94, 8.94, 9.39, 9.39, 9.39, 9.39, 9.83, 9.83, 9.83, 9.83, 9.83, 10.28, 10.28, 10.28, 10.28, 10.28, 10.28, 9.83, 8.94, 8.49, 9.83, 11.18, 11.62, 11.62, 11.62, 11.18, 11.18, 11.18, 10.73, 10.73, 10.73, 4.02, 4.02, 4.47, 4.47, 4.47, 4.47, 4.47, 4.92, 4.92, 4.92, 4.92, 4.92, 5.36, 5.36, 5.36, 5.36, 5.81, 5.81, 5.81, 5.81, 5.81, 5.81, 5.81, 5.81, 5.81, 5.81, 5.81, 6.26, 6.26, 6.26, 6.26, 6.26, 6.26, 6.71, 6.71, 6.71, 6.71, 6.71, 6.71, 6.71, 6.71, 6.71, 7.15, 7.15, 7.15, 7.15, 7.15, 7.15, 7.15, 7.6, 7.6, 7.6, 7.6, 7.6, 7.6, 7.6, 8.05, 8.05, 8.05, 8.05, 8.05, 8.05, 8.49, 8.49, 8.49, 8.49, 8.94, 8.94, 8.94, 8.94, 9.39, 9.39, 9.39, 9.39, 9.83, 9.83, 9.83, 9.83, 9.83, 10.28, 10.28, 10.28, 10.73, 10.28, 10.28, 9.39, 8.49, 8.49, 9.83, 11.18, 11.62, 12.07, 12.07, 12.07, 12.07, 11.62, 11.62, 11.62, 4.02, 4.02, 4.47, 4.47, 4.47, 4.47, 4.47, 4.92, 4.92, 4.92, 4.92, 4.92, 5.36, 5.36, 5.36, 5.36, 5.81, 5.81, 5.81, 5.81, 5.81, 5.81, 5.81, 5.81, 5.81, 5.81, 5.81, 6.26, 6.26, 6.26, 6.26, 6.26, 6.26, 6.71, 6.71, 6.71, 6.71, 6.71, 6.71, 6.71, 6.71, 6.71, 7.15, 7.15, 7.15, 7.15, 7.15, 7.15, 7.15, 7.6, 7.6, 7.6, 7.6, 7.6, 7.6, 7.6, 8.05, 8.05, 8.05, 8.05, 8.05, 8.05, 8.49, 8.49, 8.49, 8.49, 8.94, 8.94, 8.94, 8.94, 9.39, 9.39, 9.39, 9.39, 9.83, 9.83, 9.83, 9.83, 9.83, 10.28, 10.28, 10.28, 10.73, 10.73, 10.28, 9.83, 8.94, 8.05, 8.49, 9.83, 11.18, 12.07, 12.52, 12.52, 12.52, 12.52, 12.52, 12.52]}]